Dirección General De Aeronáutica Civil

Dirección Meteorológica de Chile - Servicios Climáticos

Informe General de Control de Calidad de la Estación

Listado de niveles de control de calidad para algunos parámetros
Estación Castro Ad. (420001)
Fecha de Revisión de los datos :

Elementos

Registros Niveles de Control Total
Nivel 0 Nivel 1 Nivel 2 Nivel 3 Errores Porcentaje
01 Temperatura del Aire Seco 126.537 0 . 98 0.08 % 0 . 0 . 98 0.08 %
02 Temperatura de Rocío 109.357 0 . 0 . 0 . 0 . 0 0.00 %
03 Humedad Relativa del Aire 107.498 0 . 0 . 0 . 0 . 0 0.00 %
04 Temperatura Máxima PM 12.226 0 . 0 . 373 3.05 % 0 . 373 3.05 %
05 Temperatura Mínima AM 12.043 0 . 0 . 129 1.07 % 0 . 129 1.07 %
06 Viento a 10 m. de Altura 126.667 2 0.00 % 28 0.02 % 13 0.01 % 0 . 43 0.03 %
07 Agua Caida, Acumulada 6 Horas 39.779 0 . 325 0.82 % 0 . 0 . 325 0.82 %
08 Presión Atm. a Nivel de Estación (QFE) 102.416 0 . 0 . 0 . 0 . 0 0.00 %
09 Presión Atm. a Nivel Medio del Mar (QFF) 98.335 0 . 0 . 0 . 0 . 0 0.00 %
10 Presión Atm. Estándar OACI (QNH) 38.239 0 . 0 . 0 . 0 . 0 0.00 %
11 Tiempo Pasado Sinóptico 58.886 0 . 0 . 0 . 0 . 0 0.00 %
12 Tiempo Presente Sinóptico 75.547 0 . 43 0.06 % 0 . 0 . 43 0.06 %

Totales

907.530 . 0.0002 % . 0.0544 % . 0.0567 % . 0.0000 % 1,011 0.1114 %

Detalle de Errores Encontrados

Nivel Fecha del Dato Descripción Información Error Fecha Ingreso
0 1971-08-12 16:00:00 ff (Intensidad del Viento) debe ser numerico, entre 0 y 70 kt. 99 2013-05-11 01:00:00
0 1979-02-03 19:00:00 ff (Intensidad del Viento) debe ser numerico, entre 0 y 70 kt. 99 2013-05-11 01:31:00
Errores del Nivel 2
Nivel Fecha del Dato Descripción Información Error Fecha Ingreso
1 1954-04-06 16:00:00 Viento calma fue mal ingresado. dd = 8 - ff = 0 2013-04-10 17:48:00
1 1954-05-27 20:00:00 Viento calma fue mal ingresado. dd = 10 - ff = 0 2013-04-16 16:02:00
1 1954-05-28 15:00:00 Viento calma fue mal ingresado. dd = 0 - ff = 5 2013-04-16 17:50:00
1 1954-05-28 16:00:00 Viento calma fue mal ingresado. dd = 0 - ff = 2 2013-04-16 17:50:00
1 1954-06-19 23:00:00 Viento calma fue mal ingresado. dd = 0 - ff = 2 2013-04-18 13:54:00
1 1954-10-02 17:00:00 Viento calma fue mal ingresado. dd = 10 - ff = 0 2013-04-30 19:55:00
1 1954-10-16 13:00:00 Viento calma fue mal ingresado. dd = 320 - ff = 0 2013-05-02 21:26:00
1 1954-10-18 21:00:00 Viento calma fue mal ingresado. dd = 320 - ff = 0 2013-05-03 14:39:00
1 1954-11-12 21:00:00 Viento calma fue mal ingresado. dd = 0 - ff = 2 2013-05-07 13:27:00
1 1954-11-12 22:00:00 Viento calma fue mal ingresado. dd = 0 - ff = 2 2013-05-07 13:27:00
1 1954-11-18 10:00:00 Viento calma fue mal ingresado. dd = 8 - ff = 0 2013-05-07 16:34:00
1 1954-11-18 11:00:00 Viento calma fue mal ingresado. dd = 8 - ff = 0 2013-05-07 16:34:00
1 1954-11-18 12:00:00 Viento calma fue mal ingresado. dd = 8 - ff = 0 2013-05-07 16:34:00
1 1954-11-18 13:00:00 Viento calma fue mal ingresado. dd = 8 - ff = 0 2013-05-07 16:34:00
1 1954-11-18 14:00:00 Viento calma fue mal ingresado. dd = 8 - ff = 0 2013-05-07 16:33:00
1 1954-11-18 15:00:00 Viento calma fue mal ingresado. dd = 8 - ff = 0 2013-05-07 16:33:00
1 1954-11-18 16:00:00 Viento calma fue mal ingresado. dd = 8 - ff = 0 2013-05-07 16:33:00
1 1954-11-18 17:00:00 Viento calma fue mal ingresado. dd = 8 - ff = 0 2013-05-07 16:32:00
1 1954-11-18 18:00:00 Viento calma fue mal ingresado. dd = 8 - ff = 0 2013-05-07 16:32:00
1 1954-11-18 19:00:00 Viento calma fue mal ingresado. dd = 8 - ff = 0 2013-05-07 16:32:00
1 1954-11-23 18:00:00 Viento calma fue mal ingresado. dd = 0 - ff = 2 2013-05-07 18:36:00
1 1954-11-23 19:00:00 Viento calma fue mal ingresado. dd = 0 - ff = 2 2013-05-07 18:36:00
1 1954-11-25 15:00:00 Viento calma fue mal ingresado. dd = 180 - ff = 0 2013-05-07 19:37:00
1 1954-11-25 17:00:00 Viento calma fue mal ingresado. dd = 0 - ff = 5 2013-05-07 19:36:00
1 1954-12-15 15:00:00 Viento calma fue mal ingresado. dd = 270 - ff = 0 2013-05-09 15:50:00
1 1954-12-28 21:00:00 Viento calma fue mal ingresado. dd = 0 - ff = 2 2013-05-10 13:10:00
1 1961-01-31 15:00:00 ff < 19kt y ((ww >= 31 y ww <= 35) o (ww == 37 o ww == 39 o ww >= 98))) 2013-05-11 00:35:00
1 1968-11-28 12:00:00 ff < 19kt y ((ww >= 31 y ww <= 35) o (ww == 37 o ww == 39 o ww >= 98))) 2013-05-11 00:46:00
1 1954-01-17 15:00:00 Ts debe ser mayor o igual a Td Ts=9.5 - Td=10.4 2013-03-27 14:24:00
1 1954-01-18 17:00:00 Ts debe ser mayor o igual a Td Ts=11.0 - Td=14.1 2013-03-27 14:51:00
1 1954-02-08 10:00:00 Ts debe ser mayor o igual a Td Ts=1.7 - Td=5.1 2013-04-03 14:00:00
1 1954-04-17 16:00:00 Ts debe ser mayor o igual a Td Ts=16.3 - Td=19.4 2013-04-11 17:28:00
1 1954-05-30 16:00:00 Ts debe ser mayor o igual a Td Ts=11.5 - Td=11.6 2013-04-16 19:08:00
1 1954-07-10 23:00:00 Ts debe ser mayor o igual a Td Ts=1.4 - Td=3.5 2013-04-23 13:41:00
1 1968-05-02 12:00:00 Ts debe ser mayor o igual a Td Ts=12.0 - Td=13.4 2013-05-10 15:22:00
1 1968-05-31 18:00:00 Ts debe ser mayor o igual a Td Ts=1.4 - Td=18.9 2013-05-10 15:22:00
1 1968-06-04 09:00:00 Ts debe ser mayor o igual a Td Ts=1.7 - Td=19.6 2013-05-10 15:22:00
1 1968-06-14 00:00:00 Ts debe ser mayor o igual a Td Ts=3.5 - Td=10.5 2013-05-10 15:22:00
1 1968-06-15 12:00:00 Ts debe ser mayor o igual a Td Ts=1.2 - Td=2.4 2013-05-10 15:22:00
1 1968-07-06 09:00:00 Ts debe ser mayor o igual a Td Ts=0.5 - Td=12.8 2013-05-10 15:22:00
1 1968-07-16 12:00:00 Ts debe ser mayor o igual a Td Ts=1.0 - Td=1.2 2013-05-10 15:22:00
1 1968-08-17 21:00:00 Ts debe ser mayor o igual a Td Ts=10.4 - Td=40.9 2013-05-10 15:23:00
1 1968-09-14 09:00:00 Ts debe ser mayor o igual a Td Ts=18.0 - Td=40.9 2013-05-10 15:23:00
1 1968-09-21 15:00:00 Ts debe ser mayor o igual a Td Ts=1.3 - Td=18.2 2013-05-10 15:23:00
1 1968-11-29 12:00:00 Ts debe ser mayor o igual a Td Ts=10.4 - Td=10.9 2013-05-10 15:23:00
1 1968-12-06 09:00:00 Ts debe ser mayor o igual a Td Ts=10.6 - Td=12.0 2013-05-10 15:23:00
1 1968-12-11 12:00:00 Ts debe ser mayor o igual a Td Ts=0.9 - Td=11.0 2013-05-10 15:23:00
1 1968-12-22 12:00:00 Ts debe ser mayor o igual a Td Ts=8.9 - Td=10.2 2013-05-10 15:23:00
1 1969-01-07 11:00:00 Ts debe ser mayor o igual a Td Ts=10.6 - Td=11.8 2013-05-10 15:23:00
1 1969-01-07 12:00:00 Ts debe ser mayor o igual a Td Ts=10.6 - Td=11.8 2013-05-10 15:23:00
1 1969-01-13 13:00:00 Ts debe ser mayor o igual a Td Ts=12.3 - Td=18.9 2013-05-10 15:23:00
1 1969-01-25 20:00:00 Ts debe ser mayor o igual a Td Ts=18.2 - Td=19.8 2013-05-10 15:24:00
1 1969-02-05 13:00:00 Ts debe ser mayor o igual a Td Ts=13.1 - Td=21.7 2013-05-10 15:24:00
1 1969-02-06 11:00:00 Ts debe ser mayor o igual a Td Ts=10.8 - Td=12.4 2013-05-10 15:24:00
1 1969-05-02 09:00:00 Ts debe ser mayor o igual a Td Ts=2.0 - Td=3.8 2013-05-10 15:25:00
1 1969-05-03 21:00:00 Ts debe ser mayor o igual a Td Ts=12.8 - Td=13.0 2013-05-10 15:25:00
1 1969-05-17 23:00:00 Ts debe ser mayor o igual a Td Ts=10.8 - Td=11.0 2013-05-10 15:25:00
1 1969-05-27 10:00:00 Ts debe ser mayor o igual a Td Ts=9.5 - Td=9.9 2013-05-10 15:25:00
1 1969-06-19 10:00:00 Ts debe ser mayor o igual a Td Ts=3.6 - Td=4.3 2013-05-10 15:25:00
1 1969-06-23 12:00:00 Ts debe ser mayor o igual a Td Ts=8.8 - Td=9.2 2013-05-10 15:25:00
1 1969-08-26 00:00:00 Ts debe ser mayor o igual a Td Ts=7.6 - Td=8.2 2013-05-10 15:26:00
1 1969-12-08 10:00:00 Ts debe ser mayor o igual a Td Ts=12.1 - Td=17.6 2013-05-10 15:27:00
1 1970-06-29 09:00:00 Ts debe ser mayor o igual a Td Ts=-0.4 - Td=0.1 2021-05-14 18:48:00
1 1970-06-29 10:00:00 Ts debe ser mayor o igual a Td Ts=-0.4 - Td=0.1 2021-05-14 18:48:00
1 1970-06-29 11:00:00 Ts debe ser mayor o igual a Td Ts=-0.4 - Td=0.1 2021-05-14 18:48:00
1 1970-06-29 12:00:00 Ts debe ser mayor o igual a Td Ts=-0.4 - Td=0.1 2021-05-14 18:48:00
1 1970-06-29 13:00:00 Ts debe ser mayor o igual a Td Ts=-0.4 - Td=0.1 2021-05-14 18:48:00
1 1973-07-24 00:00:00 Ts debe ser mayor o igual a Td Ts=0.4 - Td=7.5 2013-05-10 15:42:00
1 1976-11-09 00:00:00 Ts debe ser mayor o igual a Td Ts=14.4 - Td=19.8 2013-05-10 15:56:00
1 1976-11-13 22:00:00 Ts debe ser mayor o igual a Td Ts=12.0 - Td=22.7 2013-05-10 15:56:00
1 1976-11-22 09:00:00 Ts debe ser mayor o igual a Td Ts=3.9 - Td=9.5 2013-05-10 15:56:00
1 1976-11-24 00:00:00 Ts debe ser mayor o igual a Td Ts=1.0 - Td=14.6 2013-05-10 15:56:00
1 1976-12-10 15:00:00 Ts debe ser mayor o igual a Td Ts=13.2 - Td=16.4 2013-05-10 15:56:00
1 1976-12-12 18:00:00 Ts debe ser mayor o igual a Td Ts=12.0 - Td=17.3 2013-05-10 15:56:00
1 1976-12-19 22:00:00 Ts debe ser mayor o igual a Td Ts=16.6 - Td=20.6 2013-05-10 15:56:00
1 1976-12-22 21:00:00 Ts debe ser mayor o igual a Td Ts=14.0 - Td=15.9 2013-05-10 15:56:00
1 1977-03-14 20:00:00 Ts debe ser mayor o igual a Td Ts=16.7 - Td=17.2 2013-05-10 15:57:00
1 1977-03-23 10:00:00 Ts debe ser mayor o igual a Td Ts=8.5 - Td=9.4 2013-05-10 15:57:00
1 1977-04-10 15:00:00 Ts debe ser mayor o igual a Td Ts=11.8 - Td=18.6 2013-05-10 15:58:00
1 1977-04-25 13:00:00 Ts debe ser mayor o igual a Td Ts=10.6 - Td=13.0 2013-05-10 15:58:00
1 1977-05-04 12:00:00 Ts debe ser mayor o igual a Td Ts=1.5 - Td=23.4 2013-05-10 15:58:00
1 1977-05-09 12:00:00 Ts debe ser mayor o igual a Td Ts=7.0 - Td=9.3 2013-05-10 15:58:00
1 1977-05-16 15:00:00 Ts debe ser mayor o igual a Td Ts=2.5 - Td=10.3 2013-05-10 15:58:00
1 1977-05-29 21:00:00 Ts debe ser mayor o igual a Td Ts=4.8 - Td=13.5 2013-05-10 15:58:00
1 1977-06-01 00:00:00 Ts debe ser mayor o igual a Td Ts=12.6 - Td=13.6 2013-05-10 15:58:00
1 1977-06-05 12:00:00 Ts debe ser mayor o igual a Td Ts=-0.2 - Td=0.1 2013-05-10 15:58:00
1 1977-06-17 09:00:00 Ts debe ser mayor o igual a Td Ts=0.1 - Td=1.3 2013-05-10 15:58:00
1 1977-06-20 15:00:00 Ts debe ser mayor o igual a Td Ts=3.8 - Td=5.9 2013-05-10 15:58:00
1 1977-06-22 00:00:00 Ts debe ser mayor o igual a Td Ts=5.6 - Td=10.9 2013-05-10 15:58:00
1 1977-06-26 09:00:00 Ts debe ser mayor o igual a Td Ts=7.2 - Td=10.3 2013-05-10 15:58:00
1 1977-06-28 18:00:00 Ts debe ser mayor o igual a Td Ts=9.2 - Td=9.6 2013-05-10 15:59:00
1 1977-07-26 09:00:00 Ts debe ser mayor o igual a Td Ts=6.8 - Td=9.8 2013-05-10 15:59:00
1 1977-07-27 14:00:00 Ts debe ser mayor o igual a Td Ts=4.4 - Td=5.0 2013-05-10 15:59:00
1 1977-08-12 13:00:00 Ts debe ser mayor o igual a Td Ts=7.1 - Td=11.8 2013-05-10 15:59:00
1 1977-08-15 15:00:00 Ts debe ser mayor o igual a Td Ts=5.6 - Td=13.0 2013-05-10 15:59:00
1 1977-09-08 15:00:00 Ts debe ser mayor o igual a Td Ts=3.0 - Td=11.6 2013-05-10 15:59:00
1 1977-09-10 16:00:00 Ts debe ser mayor o igual a Td Ts=1.1 - Td=12.3 2013-05-10 15:59:00
1 1977-09-20 10:00:00 Ts debe ser mayor o igual a Td Ts=7.5 - Td=8.8 2013-05-10 16:00:00
1 1977-09-23 14:00:00 Ts debe ser mayor o igual a Td Ts=1.1 - Td=15.5 2013-05-10 16:00:00
1 1977-10-11 09:00:00 Ts debe ser mayor o igual a Td Ts=2.2 - Td=3.8 2013-05-10 16:00:00
1 1977-10-28 12:00:00 Ts debe ser mayor o igual a Td Ts=1.0 - Td=14.3 2013-05-10 16:00:00
1 1977-12-12 20:00:00 Ts debe ser mayor o igual a Td Ts=12.2 - Td=19.4 2013-05-10 16:01:00
1 1977-12-24 00:00:00 Ts debe ser mayor o igual a Td Ts=18.0 - Td=18.6 2013-05-10 16:01:00
1 1979-01-13 14:00:00 Ts debe ser mayor o igual a Td Ts=4.4 - Td=18.3 2013-05-10 16:01:00
1 1979-01-22 00:00:00 Ts debe ser mayor o igual a Td Ts=17.5 - Td=18.6 2013-05-10 16:01:00
1 1979-03-13 22:00:00 Ts debe ser mayor o igual a Td Ts=15.2 - Td=15.8 2013-05-10 16:02:00
1 1979-03-28 22:00:00 Ts debe ser mayor o igual a Td Ts=13.2 - Td=15.8 2013-05-10 16:02:00
1 1979-04-04 21:00:00 Ts debe ser mayor o igual a Td Ts=7.4 - Td=16.0 2013-05-10 16:02:00
1 1979-04-25 10:00:00 Ts debe ser mayor o igual a Td Ts=11.0 - Td=12.4 2013-05-10 16:02:00
1 1979-05-12 12:00:00 Ts debe ser mayor o igual a Td Ts=10.5 - Td=11.0 2013-05-10 16:03:00
1 1979-05-14 21:00:00 Ts debe ser mayor o igual a Td Ts=10.9 - Td=11.4 2013-05-10 16:03:00
1 1979-07-12 16:00:00 Ts debe ser mayor o igual a Td Ts=0.8 - Td=15.0 2013-05-10 16:03:00
1 1979-07-16 18:00:00 Ts debe ser mayor o igual a Td Ts=7.5 - Td=10.8 2013-05-10 16:03:00
1 1979-11-03 09:00:00 Ts debe ser mayor o igual a Td Ts=4.0 - Td=6.9 2013-05-10 16:05:00
1 1979-12-06 18:00:00 Ts debe ser mayor o igual a Td Ts=16.8 - Td=20.1 2013-05-10 16:05:00
1 1979-12-07 18:00:00 Ts debe ser mayor o igual a Td Ts=12.0 - Td=14.9 2013-05-10 16:05:00
1 1983-06-19 21:00:00 Ts debe ser mayor o igual a Td Ts=0.6 - Td=9.2 2013-05-10 16:22:00
1 1983-07-15 15:00:00 Ts debe ser mayor o igual a Td Ts=7.4 - Td=10.9 2013-05-10 16:23:00
1 1983-08-28 21:00:00 Ts debe ser mayor o igual a Td Ts=4.0 - Td=12.8 2013-05-10 16:23:00
1 1984-05-25 22:00:00 Ts debe ser mayor o igual a Td Ts=6.0 - Td=6.6 2013-05-10 16:26:00
1 1984-06-01 14:00:00 Ts debe ser mayor o igual a Td Ts=4.0 - Td=9.2 2013-05-10 16:26:00
1 1984-06-30 16:00:00 Ts debe ser mayor o igual a Td Ts=9.2 - Td=9.4 2013-05-10 16:26:00
1 1984-09-01 16:00:00 Ts debe ser mayor o igual a Td Ts=0.9 - Td=13.0 2013-05-10 16:27:00
1 1984-11-04 22:00:00 Ts debe ser mayor o igual a Td Ts=11.0 - Td=11.2 2013-05-10 16:28:00
1 1984-11-22 19:00:00 Ts debe ser mayor o igual a Td Ts=1.7 - Td=7.3 2013-05-10 16:28:00
1 1984-12-25 23:00:00 Ts debe ser mayor o igual a Td Ts=12.4 - Td=20.7 2013-05-10 16:28:00
1 1955-12-19 18:00:00 ts > 5.0 y ((ww >= 70 y ww <= 79) || (ww >= 85 y ww <= 88))) 88 2013-05-10 21:13:00
1 1958-05-04 21:00:00 ts > 12.0 y ( (ww >= 68 y ww <= 69) o (ww >= 83 y ww <= 84)) 83 2013-05-10 21:15:00
1 1958-08-24 15:00:00 ts > 5.0 y ((ww >= 70 y ww <= 79) || (ww >= 85 y ww <= 88))) 87 2013-05-10 21:15:00
1 1959-08-08 21:00:00 ts > 3.0 y ( (ww >= 48 y ww <= 49) o (ww >= 56 y ww <= 57) o (ww >=66 y ww <= 67)) 66 2013-05-10 21:17:00
1 1960-07-10 18:00:00 ts > 3.0 y ( (ww >= 48 y ww <= 49) o (ww >= 56 y ww <= 57) o (ww >=66 y ww <= 67)) 56 2013-05-10 21:18:00
1 1960-09-21 12:00:00 ts > 3.0 y ( (ww >= 48 y ww <= 49) o (ww >= 56 y ww <= 57) o (ww >=66 y ww <= 67)) 66 2013-05-10 21:18:00
1 1961-01-11 21:00:00 ts > 12.0 y ( (ww >= 68 y ww <= 69) o (ww >= 83 y ww <= 84)) 68 2013-05-10 21:19:00
1 1961-07-10 15:00:00 ts > 3.0 y ( (ww >= 48 y ww <= 49) o (ww >= 56 y ww <= 57) o (ww >=66 y ww <= 67)) 66 2013-05-10 21:20:00
1 1962-03-30 15:00:00 ts > 3.0 y ( (ww >= 48 y ww <= 49) o (ww >= 56 y ww <= 57) o (ww >=66 y ww <= 67)) 66 2013-05-10 21:21:00
1 1963-01-10 21:00:00 ts > 3.0 y ( (ww >= 48 y ww <= 49) o (ww >= 56 y ww <= 57) o (ww >=66 y ww <= 67)) 57 2013-05-10 21:22:00
1 1963-01-26 18:00:00 ts > 3.0 y ( (ww >= 48 y ww <= 49) o (ww >= 56 y ww <= 57) o (ww >=66 y ww <= 67)) 57 2013-05-10 21:22:00
1 1963-08-30 21:00:00 ts > 3.0 y ( (ww >= 48 y ww <= 49) o (ww >= 56 y ww <= 57) o (ww >=66 y ww <= 67)) 66 2013-05-10 21:23:00
1 1964-08-30 21:00:00 ts > 5.0 y ((ww >= 70 y ww <= 79) || (ww >= 85 y ww <= 88))) 87 2013-05-10 21:24:00
1 1964-11-28 15:00:00 ts > 12.0 y ( (ww >= 68 y ww <= 69) o (ww >= 83 y ww <= 84)) 84 2013-05-10 21:24:00
1 1966-04-26 18:00:00 ts > 12.0 y ( (ww >= 68 y ww <= 69) o (ww >= 83 y ww <= 84)) 83 2013-05-10 21:26:00
1 1966-05-13 18:00:00 ts > 3.0 y ( (ww >= 48 y ww <= 49) o (ww >= 56 y ww <= 57) o (ww >=66 y ww <= 67)) 66 2013-05-10 21:26:00
1 1966-06-28 18:00:00 ts > 5.0 y ((ww >= 70 y ww <= 79) || (ww >= 85 y ww <= 88))) 88 2013-05-10 21:27:00
1 1967-01-17 18:00:00 ts > 5.0 y ((ww >= 70 y ww <= 79) || (ww >= 85 y ww <= 88))) 85 2013-05-10 21:27:00
1 1967-05-12 18:00:00 ts > 3.0 y ( (ww >= 48 y ww <= 49) o (ww >= 56 y ww <= 57) o (ww >=66 y ww <= 67)) 66 2013-05-10 21:28:00
1 1967-05-12 21:00:00 ts > 3.0 y ( (ww >= 48 y ww <= 49) o (ww >= 56 y ww <= 57) o (ww >=66 y ww <= 67)) 66 2013-05-10 21:28:00
1 1967-05-13 00:00:00 ts > 3.0 y ( (ww >= 48 y ww <= 49) o (ww >= 56 y ww <= 57) o (ww >=66 y ww <= 67)) 66 2013-05-10 21:28:00
1 1967-05-15 12:00:00 ts > 3.0 y ( (ww >= 48 y ww <= 49) o (ww >= 56 y ww <= 57) o (ww >=66 y ww <= 67)) 66 2013-05-10 21:28:00
1 1967-05-15 15:00:00 ts > 3.0 y ( (ww >= 48 y ww <= 49) o (ww >= 56 y ww <= 57) o (ww >=66 y ww <= 67)) 66 2013-05-10 21:28:00
1 1967-05-19 15:00:00 ts > 3.0 y ( (ww >= 48 y ww <= 49) o (ww >= 56 y ww <= 57) o (ww >=66 y ww <= 67)) 66 2013-05-10 21:28:00
1 1968-12-11 15:00:00 ts > 5.0 y ((ww >= 70 y ww <= 79) || (ww >= 85 y ww <= 88))) 88 2013-05-10 21:30:00
1 1969-04-10 21:00:00 ts > 12.0 y ( (ww >= 68 y ww <= 69) o (ww >= 83 y ww <= 84)) 83 2013-05-10 21:31:00
1 1969-07-25 09:00:00 ts > 3.0 y ( (ww >= 48 y ww <= 49) o (ww >= 56 y ww <= 57) o (ww >=66 y ww <= 67)) 67 2013-05-10 21:31:00
1 1971-08-03 00:00:00 ts > 5.0 y ((ww >= 70 y ww <= 79) || (ww >= 85 y ww <= 88))) 85 2013-05-10 21:35:00
1 1971-09-13 12:00:00 ts > 5.0 y ((ww >= 70 y ww <= 79) || (ww >= 85 y ww <= 88))) 88 2013-05-10 21:35:00
1 1973-08-07 18:00:00 ts > 5.0 y ((ww >= 70 y ww <= 79) || (ww >= 85 y ww <= 88))) 87 2013-05-10 21:39:00
1 1974-05-08 21:00:00 ts > 12.0 y ( (ww >= 68 y ww <= 69) o (ww >= 83 y ww <= 84)) 69 2013-05-10 21:40:00
1 1974-10-23 18:00:00 ts > 5.0 y ((ww >= 70 y ww <= 79) || (ww >= 85 y ww <= 88))) 87 2013-05-10 21:41:00
1 1974-10-23 21:00:00 ts > 5.0 y ((ww >= 70 y ww <= 79) || (ww >= 85 y ww <= 88))) 87 2013-05-10 21:41:00
1 1975-07-05 12:00:00 ts > 5.0 y ((ww >= 70 y ww <= 79) || (ww >= 85 y ww <= 88))) 88 2013-05-10 21:42:00
1 1975-07-07 18:00:00 ts > 5.0 y ((ww >= 70 y ww <= 79) || (ww >= 85 y ww <= 88))) 88 2013-05-10 21:42:00
1 1975-11-15 15:00:00 ts > 5.0 y ((ww >= 70 y ww <= 79) || (ww >= 85 y ww <= 88))) 88 2013-05-10 21:43:00
1 1976-06-29 15:00:00 (ts - td > 5.0) y ((ww >= 40 y ww <= 49)) 45 2013-05-10 21:44:00
1 1979-10-27 00:00:00 ts > 5.0 y ((ww >= 70 y ww <= 79) || (ww >= 85 y ww <= 88))) 88 2013-05-10 21:49:00
1 1980-05-10 09:00:00 ts > 5.0 y ((ww >= 70 y ww <= 79) || (ww >= 85 y ww <= 88))) 87 2013-05-10 21:50:00
1 1981-09-19 18:00:00 ts > 5.0 y ((ww >= 70 y ww <= 79) || (ww >= 85 y ww <= 88))) 88 2013-05-10 21:52:00
1 1982-10-17 00:00:00 ts > 5.0 y ((ww >= 70 y ww <= 79) || (ww >= 85 y ww <= 88))) 87 2013-05-10 21:55:00
1 1982-10-25 00:00:00 ts > 5.0 y ((ww >= 70 y ww <= 79) || (ww >= 85 y ww <= 88))) 85 2013-05-10 21:55:00
1 1988-06-28 18:00:00 ts > 5.0 y ((ww >= 70 y ww <= 79) || (ww >= 85 y ww <= 88))) 88 2013-05-10 22:05:00
1 1983-08-11 12:00:00 rrr = 16.4 y WW = 1 w1=2 w2=2 16.4 2013-05-10 14:23:00
1 1983-08-27 12:00:00 rrr = 1.5 y WW = 2 w1=1 w2=1 1.5 2013-05-10 14:23:00
1 1983-12-04 18:00:00 rrr = s/p y WW = 2 w1=8 w2=2 0.0 2013-05-10 14:24:00
1 1983-12-05 00:00:00 rrr = trazas y WW = 2 w1=2 w2=2 0.0 2013-05-10 14:24:00
1 1983-12-26 18:00:00 rrr = 0.2 y WW = 1 w1=2 w2=2 0.2 2013-05-10 14:24:00
1 1984-03-12 12:00:00 rrr = 0.9 y WW = 2 w1=1 w2=1 0.9 2013-05-10 14:24:00
1 1984-03-28 12:00:00 rrr = 11.5 y WW = 2 w1=2 w2=2 11.5 2013-05-10 14:24:00
1 1984-03-29 12:00:00 rrr = 0.4 y WW = 2 w1=1 w2=1 0.4 2013-05-10 14:24:00
1 1984-04-01 12:00:00 rrr = 3.5 y WW = 2 w1=1 w2=1 3.5 2013-05-10 14:24:00
1 1984-04-02 12:00:00 rrr = 0.5 y WW = 2 w1=0 w2=0 0.5 2013-05-10 14:24:00
1 1984-04-11 12:00:00 rrr = 0.2 y WW = 10 w1=4 w2=2 0.2 2013-05-10 14:24:00
1 1984-04-23 12:00:00 rrr = trazas y WW = 2 w1=0 w2=0 0.0 2013-05-10 14:24:00
1 1984-04-28 12:00:00 rrr = 6.0 y WW = 2 w1=0 w2=0 6.0 2013-05-10 14:24:00
1 1984-05-05 12:00:00 rrr = 0.3 y WW = 2 w1=2 w2=1 0.3 2013-05-10 14:24:00
1 1984-05-07 12:00:00 rrr = 0.3 y WW = 2 w1=2 w2=2 0.3 2013-05-10 14:24:00
1 1984-05-16 12:00:00 rrr = 4.8 y WW = 2 w1=2 w2=2 4.8 2013-05-10 14:24:00
1 1984-06-01 12:00:00 rrr = 0.3 y WW = 2 w1=1 w2=1 0.3 2013-05-10 14:24:00
1 1984-06-07 12:00:00 rrr = 0.6 y WW = 10 w1=4 w2=2 0.6 2013-05-10 14:24:00
1 1984-06-13 12:00:00 rrr = 0.1 y WW = 2 w1=0 w2=0 0.1 2013-05-10 14:24:00
1 1984-06-17 12:00:00 rrr = 3.1 y WW = 2 w1=1 w2=1 3.1 2013-05-10 14:24:00
1 1984-06-21 12:00:00 rrr = 0.1 y WW = 2 w1=2 w2=2 0.1 2013-05-10 14:24:00
1 1984-07-03 12:00:00 rrr = 1.1 y WW = 2 w1=1 w2=1 1.1 2013-05-10 14:24:00
1 1984-07-06 12:00:00 rrr = 3.9 y WW = 10 w1=4 w2=4 3.9 2013-05-10 14:24:00
1 1984-07-07 12:00:00 rrr = 2.8 y WW = 2 w1=2 w2=2 2.8 2013-05-10 14:24:00
1 1984-07-13 12:00:00 rrr = 0.6 y WW = 2 w1=2 w2=2 0.6 2013-05-10 14:24:00
1 1984-07-20 12:00:00 rrr = 0.3 y WW = 10 w1=4 w2=4 0.3 2013-05-10 14:24:00
1 1984-07-26 12:00:00 rrr = 15.4 y WW = 2 w1=2 w2=1 15.4 2013-05-10 14:24:00
1 1984-07-31 12:00:00 rrr = 8.9 y WW = 2 w1=2 w2=2 8.9 2013-05-10 14:24:00
1 1984-08-02 12:00:00 rrr = trazas y WW = 2 w1=2 w2=2 0.0 2013-05-10 14:24:00
1 1984-08-17 12:00:00 rrr = 9.4 y WW = 2 w1=2 w2=2 9.4 2013-05-10 14:24:00
1 1984-08-18 12:00:00 rrr = 0.8 y WW = 3 w1=2 w2=2 0.8 2013-05-10 14:24:00
1 1984-08-20 12:00:00 rrr = 0.1 y WW = 2 w1=2 w2=2 0.1 2013-05-10 14:24:00
1 1984-08-27 12:00:00 rrr = 0.5 y WW = 10 w1=4 w2=4 0.5 2013-05-10 14:24:00
1 1984-09-06 12:00:00 rrr = 0.9 y WW = 2 w1=2 w2=2 0.9 2013-05-10 14:24:00
1 1984-09-08 12:00:00 rrr = 3.2 y WW = 2 w1=2 w2=2 3.2 2013-05-10 14:24:00
1 1984-09-10 12:00:00 rrr = 31.0 y WW = 2 w1=2 w2=2 31.0 2013-05-10 14:24:00
1 1984-09-19 12:00:00 rrr = 3.0 y WW = 2 w1=2 w2=2 3.0 2013-05-10 14:24:00
1 1984-09-20 12:00:00 rrr = 0.2 y WW = 2 w1=1 w2=1 0.2 2013-05-10 14:24:00
1 1984-09-23 12:00:00 rrr = 8.7 y WW = 1 w1=2 w2=2 8.7 2013-05-10 14:24:00
1 1984-10-01 12:00:00 rrr = 0.9 y WW = 1 w1=1 w2=1 0.9 2013-05-10 14:24:00
1 1984-10-04 12:00:00 rrr = 1.2 y WW = 2 w1=2 w2=2 1.2 2013-05-10 14:24:00
1 1984-10-07 12:00:00 rrr = trazas y WW = 2 w1=2 w2=2 0.0 2013-05-10 14:24:00
1 1984-10-13 12:00:00 rrr = 0.3 y WW = 3 w1=1 w2=1 0.3 2013-05-10 14:24:00
1 1984-10-15 12:00:00 rrr = 0.3 y WW = 2 w1=2 w2=2 0.3 2013-05-10 14:24:00
1 1984-10-21 12:00:00 rrr = 1.4 y WW = 2 w1=1 w2=1 1.4 2013-05-10 14:24:00
1 1984-10-30 12:00:00 rrr = 2.5 y WW = 2 w1=2 w2=2 2.5 2013-05-10 14:24:00
1 1984-11-10 12:00:00 rrr = 0.3 y WW = 3 w1=0 w2=0 0.3 2013-05-10 14:24:00
1 1984-11-19 12:00:00 rrr = 0.1 y WW = 2 w1=2 w2=2 0.1 2013-05-10 14:24:00
1 1984-12-03 12:00:00 rrr = 0.2 y WW = 10 w1=2 w2=2 0.2 2013-05-10 14:24:00
1 1984-12-13 12:00:00 rrr = 0.2 y WW = 1 w1=2 w2=2 0.2 2013-05-10 14:24:00
1 1985-01-04 12:00:00 rrr = 0.4 y WW = 3 w1=2 w2=2 0.4 2013-05-10 14:24:00
1 1985-01-14 12:00:00 rrr = 5.4 y WW = 2 w1=2 w2=2 5.4 2013-05-10 14:24:00
1 1985-01-15 12:00:00 rrr = trazas y WW = 2 w1=2 w2=2 0.0 2013-05-10 14:24:00
1 1985-02-08 12:00:00 rrr = 0.2 y WW = 2 w1=2 w2=2 0.2 2013-05-10 14:24:00
1 1985-02-09 12:00:00 rrr = 0.6 y WW = 1 w1=2 w2=2 0.6 2013-05-10 14:24:00
1 1985-02-16 12:00:00 rrr = 1.0 y WW = 10 w1=4 w2=4 1.0 2013-05-10 14:24:00
1 1985-02-26 12:00:00 rrr = 0.3 y WW = 2 w1=2 w2=2 0.3 2013-05-10 14:24:00
1 1985-03-17 12:00:00 rrr = 1.4 y WW = 1 w1=1 w2=1 1.4 2013-05-10 14:24:00
1 1985-03-20 12:00:00 rrr = 3.0 y WW = 2 w1=2 w2=2 3.0 2013-05-10 14:24:00
1 1985-03-22 12:00:00 rrr = 1.2 y WW = 2 w1=2 w2=2 1.2 2013-05-10 14:24:00
1 1985-03-23 12:00:00 rrr = 1.4 y WW = 3 w1=1 w2=1 1.4 2013-05-10 14:24:00
1 1985-03-26 12:00:00 rrr = 9.1 y WW = 1 w1=2 w2=2 9.1 2013-05-10 14:24:00
1 1985-03-29 12:00:00 rrr = 0.4 y WW = 1 w1=2 w2=2 0.4 2013-05-10 14:24:00
1 1985-03-31 12:00:00 rrr = 4.7 y WW = 3 w1=1 w2=1 4.7 2013-05-10 14:24:00
1 1985-04-06 12:00:00 rrr = 6.0 y WW = 1 w1=2 w2=2 6.0 2013-05-10 14:24:00
1 1985-04-08 12:00:00 rrr = 25.1 y WW = 2 w1=2 w2=2 25.1 2013-05-10 14:24:00
1 1985-04-18 12:00:00 rrr = 0.2 y WW = 2 w1=2 w2=2 0.2 2013-05-10 14:24:00
1 1985-04-20 12:00:00 rrr = 0.6 y WW = 2 w1=1 w2=1 0.6 2013-05-10 14:24:00
1 1985-04-25 12:00:00 rrr = 0.6 y WW = 15 w1=2 w2=2 0.6 2013-05-10 14:24:00
1 1985-04-27 12:00:00 rrr = 4.1 y WW = 2 w1=1 w2=1 4.1 2013-05-10 14:24:00
1 1985-04-30 12:00:00 rrr = 0.6 y WW = 2 w1=2 w2=2 0.6 2013-05-10 14:24:00
1 1985-05-04 12:00:00 rrr = 0.2 y WW = 2 w1=1 w2=1 0.2 2013-05-10 14:24:00
1 1985-05-09 12:00:00 rrr = 5.0 y WW = 2 w1=1 w2=1 5.0 2013-05-10 14:24:00
1 1985-05-14 12:00:00 rrr = 1.4 y WW = 2 w1=1 w2=1 1.4 2013-05-10 14:24:00
1 1985-05-21 12:00:00 rrr = 0.1 y WW = 2 w1=2 w2=2 0.1 2013-05-10 14:24:00
1 1985-05-25 12:00:00 rrr = 15.9 y WW = 2 w1=2 w2=2 15.9 2013-05-10 14:24:00
1 1985-05-26 12:00:00 rrr = 5.2 y WW = 2 w1=2 w2=2 5.2 2013-05-10 14:24:00
1 1985-05-28 12:00:00 rrr = 1.5 y WW = 1 w1=2 w2=2 1.5 2013-05-10 14:24:00
1 1985-05-30 12:00:00 rrr = 6.0 y WW = 1 w1=2 w2=1 6.0 2013-05-10 14:24:00
1 1985-06-01 12:00:00 rrr = 2.5 y WW = 2 w1=2 w2=2 2.5 2013-05-10 14:24:00
1 1985-06-03 12:00:00 rrr = 6.4 y WW = 2 w1=2 w2=2 6.4 2013-05-10 14:24:00
1 1985-06-05 12:00:00 rrr = 0.5 y WW = 2 w1=2 w2=2 0.5 2013-05-10 14:24:00
1 1985-06-07 12:00:00 rrr = 0.2 y WW = 10 w1=1 w2=1 0.2 2013-05-10 14:24:00
1 1985-06-15 12:00:00 rrr = 13.2 y WW = 2 w1=2 w2=2 13.2 2013-05-10 14:25:00
1 1985-06-26 12:00:00 rrr = 3.6 y WW = 2 w1=2 w2=2 3.6 2013-05-10 14:25:00
1 1985-06-30 12:00:00 rrr = 0.1 y WW = 2 w1=2 w2=2 0.1 2013-05-10 14:25:00
1 1985-07-03 12:00:00 rrr = 4.4 y WW = 1 w1=2 w2=2 4.4 2013-05-10 14:25:00
1 1985-07-04 12:00:00 rrr = 0.6 y WW = 2 w1=1 w2=1 0.6 2013-05-10 14:25:00
1 1985-07-06 12:00:00 rrr = 1.1 y WW = 2 w1=2 w2=2 1.1 2013-05-10 14:25:00
1 1985-07-07 12:00:00 rrr = 0.5 y WW = 2 w1=2 w2=2 0.5 2013-05-10 14:25:00
1 1985-07-14 12:00:00 rrr = 1.0 y WW = 10 w1=4 w2=2 1.0 2013-05-10 14:25:00
1 1985-07-18 12:00:00 rrr = 0.5 y WW = 2 w1=2 w2=2 0.5 2013-05-10 14:25:00
1 1985-07-29 12:00:00 rrr = 0.3 y WW = 2 w1=2 w2=2 0.3 2013-05-10 14:25:00
1 1985-08-01 12:00:00 rrr = 6.3 y WW = 2 w1=2 w2=2 6.3 2013-05-10 14:25:00
1 1985-08-05 12:00:00 rrr = 1.2 y WW = 2 w1=1 w2=1 1.2 2013-05-10 14:25:00
1 1985-08-12 12:00:00 rrr = 1.5 y WW = 10 w1=4 w2=4 1.5 2013-05-10 14:25:00
1 1985-08-22 12:00:00 rrr = trazas y WW = 2 w1=2 w2=2 0.0 2013-05-10 14:25:00
1 1985-08-23 12:00:00 rrr = 0.1 y WW = 15 w1=2 w2=2 0.1 2013-05-10 14:25:00
1 1985-08-25 12:00:00 rrr = 0.1 y WW = 2 w1=2 w2=2 0.1 2013-05-10 14:25:00
1 1985-08-28 12:00:00 rrr = 0.9 y WW = 2 w1=2 w2=2 0.9 2013-05-10 14:25:00
1 1985-08-31 12:00:00 rrr = trazas y WW = 2 w1=0 w2=0 0.0 2013-05-10 14:25:00
1 1985-09-06 12:00:00 rrr = 12.8 y WW = 10 w1=4 w2=2 12.8 2013-05-10 14:25:00
1 1985-09-12 12:00:00 rrr = 0.2 y WW = 2 w1=0 w2=0 0.2 2013-05-10 14:25:00
1 1985-09-13 12:00:00 rrr = 1.5 y WW = 2 w1=1 w2=1 1.5 2013-05-10 14:25:00
1 1985-09-21 12:00:00 rrr = 0.2 y WW = 1 w1=2 w2=2 0.2 2013-05-10 14:25:00
1 1985-09-25 12:00:00 rrr = 1.6 y WW = 2 w1=2 w2=2 1.6 2013-05-10 14:25:00
1 1985-10-01 12:00:00 rrr = 0.2 y WW = 1 w1=1 w2=1 0.2 2013-05-10 14:25:00
1 1985-10-06 12:00:00 rrr = trazas y WW = 2 w1=1 w2=1 0.0 2013-05-10 14:25:00
1 1985-10-09 12:00:00 rrr = 0.1 y WW = 2 w1=2 w2=2 0.1 2013-05-10 14:25:00
1 1985-10-13 12:00:00 rrr = 3.2 y WW = 1 w1=2 w2=2 3.2 2013-05-10 14:25:00
1 1985-10-14 12:00:00 rrr = 0.2 y WW = 2 w1=1 w2=1 0.2 2013-05-10 14:25:00
1 1985-10-17 12:00:00 rrr = 0.3 y WW = 2 w1=2 w2=2 0.3 2013-05-10 14:25:00
1 1985-10-19 12:00:00 rrr = 3.6 y WW = 1 w1=2 w2=2 3.6 2013-05-10 14:25:00
1 1985-10-21 12:00:00 rrr = 0.8 y WW = 2 w1=2 w2=2 0.8 2013-05-10 14:25:00
1 1985-10-22 12:00:00 rrr = trazas y WW = 2 w1=0 w2=0 0.0 2013-05-10 14:25:00
1 1985-12-05 12:00:00 rrr = 0.2 y WW = 3 w1=1 w2=1 0.2 2013-05-10 14:25:00
1 1985-12-18 12:00:00 rrr = 0.5 y WW = 1 w1=1 w2=1 0.5 2013-05-10 14:25:00
1 1986-01-03 12:00:00 rrr = 1.0 y WW = 15 w1=2 w2=2 1.0 2013-05-10 14:25:00
1 1986-01-11 12:00:00 rrr = 0.2 y WW = 3 w1=1 w2=0 0.2 2013-05-10 14:25:00
1 1986-01-12 12:00:00 rrr = 0.7 y WW = 3 w1=1 w2=1 0.7 2013-05-10 14:25:00
1 1986-01-14 12:00:00 rrr = 4.8 y WW = 10 w1=4 w2=4 4.8 2013-05-10 14:25:00
1 1986-01-15 12:00:00 rrr = 0.4 y WW = 3 w1=1 w2=1 0.4 2013-05-10 14:25:00
1 1986-01-25 12:00:00 rrr = 3.0 y WW = 1 w1=0 w2=0 3.0 2013-05-10 14:25:00
1 1986-01-27 12:00:00 rrr = 3.5 y WW = 2 w1=0 w2=0 3.5 2013-05-10 14:25:00
1 1986-01-29 12:00:00 rrr = 8.7 y WW = 2 w1=2 w2=2 8.7 2013-05-10 14:25:00
1 1986-01-31 12:00:00 rrr = 0.1 y WW = 2 w1=0 w2=0 0.1 2013-05-10 14:25:00
1 1986-02-12 12:00:00 rrr = 0.4 y WW = 2 w1=2 w2=2 0.4 2013-05-10 14:25:00
1 1986-03-10 12:00:00 rrr = 0.6 y WW = 2 w1=1 w2=0 0.6 2013-05-10 14:25:00
1 1986-03-14 12:00:00 rrr = 0.3 y WW = 2 w1=2 w2=2 0.3 2013-05-10 14:25:00
1 1986-03-20 12:00:00 rrr = 3.2 y WW = 3 w1=2 w2=1 3.2 2013-05-10 14:25:00
1 1986-04-06 12:00:00 rrr = 0.1 y WW = 1 w1=2 w2=2 0.1 2013-05-10 14:25:00
1 1986-04-07 12:00:00 rrr = 3.2 y WW = 2 w1=2 w2=2 3.2 2013-05-10 14:25:00
1 1986-04-10 12:00:00 rrr = 2.0 y WW = 2 w1=2 w2=2 2.0 2013-05-10 14:25:00
1 1986-04-27 12:00:00 rrr = 4.6 y WW = 2 w1=0 w2=0 4.6 2013-05-10 14:25:00
1 1986-05-01 12:00:00 rrr = 0.2 y WW = 2 w1=1 w2=1 0.2 2013-05-10 14:25:00
1 1986-05-12 12:00:00 rrr = 0.2 y WW = 2 w1=0 w2=0 0.2 2013-05-10 14:25:00
1 1986-05-19 12:00:00 rrr = 3.2 y WW = 2 w1=1 w2=1 3.2 2013-05-10 14:25:00
1 1986-05-29 12:00:00 rrr = 0.7 y WW = 2 w1=1 w2=1 0.7 2013-05-10 14:25:00
1 1986-05-31 12:00:00 rrr = 0.3 y WW = 2 w1=2 w2=2 0.3 2013-05-10 14:25:00
1 1986-06-04 12:00:00 rrr = 0.7 y WW = 1 w1=1 w2=1 0.7 2013-05-10 14:25:00
1 1986-06-09 12:00:00 rrr = 0.5 y WW = 2 w1=0 w2=0 0.5 2013-05-10 14:25:00
1 1986-06-11 12:00:00 rrr = 1.5 y WW = 2 w1=0 w2=0 1.5 2013-05-10 14:25:00
1 1986-06-16 12:00:00 rrr = 0.2 y WW = 2 w1=2 w2=2 0.2 2013-05-10 14:25:00
1 1986-06-19 12:00:00 rrr = trazas y WW = 2 w1=1 w2=1 0.0 2013-05-10 14:25:00
1 1986-06-21 12:00:00 rrr = 0.5 y WW = 2 w1=2 w2=2 0.5 2013-05-10 14:25:00
1 1986-06-22 12:00:00 rrr = 0.5 y WW = 2 w1=2 w2=2 0.5 2013-05-10 14:25:00
1 1986-06-24 12:00:00 rrr = 3.4 y WW = 2 w1=2 w2=2 3.4 2013-05-10 14:25:00
1 1986-06-27 12:00:00 rrr = 10.0 y WW = 2 w1=2 w2=2 10.0 2013-05-10 14:25:00
1 1986-07-23 12:00:00 rrr = 8.0 y WW = 2 w1=2 w2=2 8.0 2013-05-10 14:25:00
1 1986-07-29 12:00:00 rrr = 11.4 y WW = 10 w1=2 w2=2 11.4 2013-05-10 14:25:00
1 1986-08-06 12:00:00 rrr = 14.6 y WW = 2 w1=2 w2=2 14.6 2013-05-10 14:25:00
1 1986-08-07 12:00:00 rrr = 1.0 y WW = 2 w1=0 w2=0 1.0 2013-05-10 14:25:00
1 1986-08-24 12:00:00 rrr = 0.3 y WW = 2 w1=2 w2=2 0.3 2013-05-10 14:25:00
1 1986-08-28 12:00:00 rrr = 1.1 y WW = 1 w1=2 w2=2 1.1 2013-05-10 14:25:00
1 1986-09-01 12:00:00 rrr = 5.5 y WW = 2 w1=1 w2=1 5.5 2013-05-10 14:25:00
1 1986-09-08 12:00:00 rrr = 10.0 y WW = 3 w1=1 w2=1 10.0 2013-05-10 14:25:00
1 1986-09-09 12:00:00 rrr = 0.2 y WW = 2 w1=2 w2=2 0.2 2013-05-10 14:25:00
1 1986-09-13 12:00:00 rrr = 0.5 y WW = 2 w1=2 w2=2 0.5 2013-05-10 14:25:00
1 1986-09-16 12:00:00 rrr = 1.0 y WW = 2 w1=2 w2=2 1.0 2013-05-10 14:25:00
1 1986-09-17 12:00:00 rrr = 0.2 y WW = 3 w1=1 w2=1 0.2 2013-05-10 14:25:00
1 1986-09-18 12:00:00 rrr = 3.8 y WW = 3 w1=2 w2=1 3.8 2013-05-10 14:25:00
1 1986-09-21 12:00:00 rrr = 2.0 y WW = 3 w1=1 w2=1 2.0 2013-05-10 14:25:00
1 1986-10-08 12:00:00 rrr = 7.0 y WW = 10 w1=2 w2=2 7.0 2013-05-10 14:25:00
1 1986-10-10 12:00:00 rrr = 0.2 y WW = 2 w1=0 w2=0 0.2 2013-05-10 14:25:00
1 1986-10-12 12:00:00 rrr = 1.0 y WW = 2 w1=4 w2=4 1.0 2013-05-10 14:25:00
1 1986-10-16 12:00:00 rrr = 2.3 y WW = 3 w1=2 w2=1 2.3 2013-05-10 14:25:00
1 1986-10-17 12:00:00 rrr = 0.6 y WW = 1 w1=2 w2=2 0.6 2013-05-10 14:25:00
1 1986-10-30 12:00:00 rrr = 0.4 y WW = 3 w1=1 w2=1 0.4 2013-05-10 14:25:00
1 1986-10-31 12:00:00 rrr = 0.3 y WW = 1 w1=1 w2=1 0.3 2013-05-10 14:25:00
1 1986-11-01 12:00:00 rrr = 0.3 y WW = 1 w1=1 w2=1 0.3 2013-05-10 14:25:00
1 1986-11-15 12:00:00 rrr = 0.3 y WW = 2 w1=1 w2=1 0.3 2013-05-10 14:25:00
1 1986-11-19 12:00:00 rrr = 0.3 y WW = 3 w1=1 w2=1 0.3 2013-05-10 14:25:00
1 1986-11-29 12:00:00 rrr = 0.1 y WW = 3 w1=2 w2=2 0.1 2013-05-10 14:25:00
1 1986-12-03 12:00:00 rrr = 1.2 y WW = 2 w1=2 w2=2 1.2 2013-05-10 14:25:00
1 1987-01-27 12:00:00 rrr = 1.0 y WW = 2 w1=2 w2=2 1.0 2013-05-10 14:26:00
1 1987-01-28 12:00:00 rrr = 0.1 y WW = 2 w1=2 w2=2 0.1 2013-05-10 14:26:00
1 1987-01-29 12:00:00 rrr = 4.0 y WW = 2 w1=0 w2=0 4.0 2013-05-10 14:26:00
1 1987-02-02 12:00:00 rrr = 0.2 y WW = 1 w1=2 w2=2 0.2 2013-05-10 14:26:00
1 1987-02-04 12:00:00 rrr = 0.8 y WW = 2 w1=0 w2=0 0.8 2013-05-10 14:26:00
1 1987-02-05 12:00:00 rrr = 1.7 y WW = 3 w1=2 w2=1 1.7 2013-05-10 14:26:00
1 1987-02-25 12:00:00 rrr = 4.5 y WW = 2 w1=2 w2=2 4.5 2013-05-10 14:26:00
1 1987-02-26 12:00:00 rrr = 10.4 y WW = 2 w1=2 w2=2 10.4 2013-05-10 14:26:00
1 1987-03-07 12:00:00 rrr = 3.8 y WW = 2 w1=0 w2=0 3.8 2013-05-10 14:26:00
1 1987-03-14 12:00:00 rrr = 1.2 y WW = 2 w1=0 w2=0 1.2 2013-05-10 14:26:00
1 1987-03-25 12:00:00 rrr = 0.2 y WW = 2 w1=2 w2=2 0.2 2013-05-10 14:26:00
1 1987-04-01 12:00:00 rrr = 1.7 y WW = 1 w1=2 w2=2 1.7 2013-05-10 14:26:00
1 1987-04-23 12:00:00 rrr = 0.1 y WW = 2 w1=2 w2=2 0.1 2013-05-10 14:26:00
1 1987-05-04 12:00:00 rrr = 0.5 y WW = 2 w1=2 w2=2 0.5 2013-05-10 14:26:00
1 1987-05-08 12:00:00 rrr = 0.2 y WW = 2 w1=2 w2=2 0.2 2013-05-10 14:26:00
1 1987-05-27 12:00:00 rrr = 0.3 y WW = 2 w1=1 w2=1 0.3 2013-05-10 14:26:00
1 1987-05-30 12:00:00 rrr = 0.2 y WW = 2 w1=2 w2=2 0.2 2013-05-10 14:26:00
1 1987-06-05 12:00:00 rrr = 1.5 y WW = 2 w1=2 w2=2 1.5 2013-05-10 14:26:00
1 1987-06-06 12:00:00 rrr = 36.1 y WW = 2 w1=1 w2=1 36.1 2013-05-10 14:26:00
1 1987-06-09 12:00:00 rrr = 8.8 y WW = 1 w1=2 w2=2 8.8 2013-05-10 14:26:00
1 1987-06-12 12:00:00 rrr = 0.2 y WW = 2 w1=0 w2=0 0.2 2013-05-10 14:26:00
1 1987-06-15 12:00:00 rrr = 0.8 y WW = 2 w1=2 w2=2 0.8 2013-05-10 14:26:00
1 1987-06-25 12:00:00 rrr = 1.5 y WW = 2 w1=2 w2=2 1.5 2013-05-10 14:26:00
1 1987-06-29 12:00:00 rrr = 0.4 y WW = 2 w1=2 w2=2 0.4 2013-05-10 14:26:00
1 1987-06-30 12:00:00 rrr = 0.4 y WW = 2 w1=2 w2=2 0.4 2013-05-10 14:26:00
1 1987-07-04 12:00:00 rrr = 4.5 y WW = 2 w1=2 w2=2 4.5 2013-05-10 14:26:00
1 1987-07-06 12:00:00 rrr = 3.0 y WW = 2 w1=2 w2=2 3.0 2013-05-10 14:26:00
1 1987-07-14 12:00:00 rrr = 1.3 y WW = 2 w1=2 w2=2 1.3 2013-05-10 14:26:00
1 1987-07-20 12:00:00 rrr = 1.0 y WW = 2 w1=1 w2=1 1.0 2013-05-10 14:26:00
1 1987-07-25 12:00:00 rrr = 4.7 y WW = 2 w1=2 w2=2 4.7 2013-05-10 14:26:00
1 1987-08-14 12:00:00 rrr = 0.1 y WW = 2 w1=2 w2=2 0.1 2013-05-10 14:26:00
1 1987-08-28 12:00:00 rrr = 6.9 y WW = 2 w1=0 w2=0 6.9 2013-05-10 14:26:00
1 1987-08-29 12:00:00 rrr = 3.0 y WW = 2 w1=2 w2=2 3.0 2013-05-10 14:26:00
1 1987-08-31 12:00:00 rrr = 10.8 y WW = 2 w1=2 w2=2 10.8 2013-05-10 14:26:00
1 1987-09-01 12:00:00 rrr = 1.9 y WW = 2 w1=1 w2=1 1.9 2013-05-10 14:26:00
1 1987-09-07 12:00:00 rrr = 6.3 y WW = 2 w1=2 w2=2 6.3 2013-05-10 14:26:00
1 1987-09-09 12:00:00 rrr = 1.9 y WW = 2 w1=2 w2=2 1.9 2013-05-10 14:26:00
1 1987-09-10 12:00:00 rrr = 0.2 y WW = 2 w1=2 w2=2 0.2 2013-05-10 14:26:00
1 1987-09-14 12:00:00 rrr = 0.6 y WW = 2 w1=1 w2=1 0.6 2013-05-10 14:26:00
1 1987-09-15 12:00:00 rrr = trazas y WW = 2 w1=2 w2=2 0.0 2013-05-10 14:26:00
1 1987-09-18 12:00:00 rrr = 1.5 y WW = 2 w1=1 w2=1 1.5 2013-05-10 14:26:00
1 1987-09-27 12:00:00 rrr = 0.4 y WW = 2 w1=2 w2=2 0.4 2013-05-10 14:26:00
1 1987-10-04 12:00:00 rrr = 0.6 y WW = 2 w1=2 w2=2 0.6 2013-05-10 14:26:00
1 1987-10-06 12:00:00 rrr = 0.4 y WW = 3 w1=1 w2=1 0.4 2013-05-10 14:26:00
1 1987-10-11 12:00:00 rrr = 0.2 y WW = 3 w1=1 w2=1 0.2 2013-05-10 14:26:00
1 1987-10-12 12:00:00 rrr = 0.7 y WW = 2 w1=2 w2=2 0.7 2013-05-10 14:26:00
1 1987-10-20 12:00:00 rrr = 1.7 y WW = 2 w1=2 w2=2 1.7 2013-05-10 14:26:00
1 1987-10-23 12:00:00 rrr = 0.2 y WW = 2 w1=0 w2=0 0.2 2013-05-10 14:26:00
1 1987-10-28 12:00:00 rrr = 0.1 y WW = 3 w1=0 w2=0 0.1 2013-05-10 14:26:00
1 1987-11-01 12:00:00 rrr = 12.2 y WW = 2 w1=1 w2=1 12.2 2013-05-10 14:26:00
1 1987-11-02 12:00:00 rrr = 1.5 y WW = 2 w1=1 w2=1 1.5 2013-05-10 14:26:00
1 1987-11-03 12:00:00 rrr = trazas y WW = 2 w1=1 w2=1 0.0 2013-05-10 14:26:00
1 1987-11-06 12:00:00 rrr = 1.0 y WW = 2 w1=2 w2=2 1.0 2013-05-10 14:26:00
1 1987-11-28 12:00:00 rrr = 0.2 y WW = 1 w1=2 w2=2 0.2 2013-05-10 14:26:00
1 1987-12-01 12:00:00 rrr = 0.2 y WW = 1 w1=2 w2=2 0.2 2013-05-10 14:26:00
1 1987-12-18 12:00:00 rrr = 0.2 y WW = 2 w1=2 w2=2 0.2 2013-05-10 14:26:00
1 1987-12-19 12:00:00 rrr = 0.8 y WW = 2 w1=0 w2=0 0.8 2013-05-10 14:26:00
1 1988-01-03 12:00:00 rrr = 0.2 y WW = 2 w1=2 w2=2 0.2 2013-05-10 14:26:00
1 1988-01-15 12:00:00 rrr = 0.5 y WW = 1 w1=2 w2=2 0.5 2013-05-10 14:26:00
1 1988-02-13 12:00:00 rrr = 0.6 y WW = 2 w1=1 w2=0 0.6 2013-05-10 14:26:00
1 1988-02-20 12:00:00 rrr = 0.3 y WW = 1 w1=2 w2=2 0.3 2013-05-10 14:26:00
1 1988-02-23 12:00:00 rrr = 0.5 y WW = 2 w1=0 w2=0 0.5 2013-05-10 14:26:00
1 1988-02-26 12:00:00 rrr = 0.5 y WW = 2 w1=2 w2=2 0.5 2013-05-10 14:26:00
1 1988-02-27 12:00:00 rrr = 4.8 y WW = 2 w1=2 w2=2 4.8 2013-05-10 14:26:00
1 1988-03-03 12:00:00 rrr = 18.1 y WW = 2 w1=1 w2=1 18.1 2013-05-10 14:26:00
1 1988-03-09 12:00:00 rrr = 7.4 y WW = 1 w1=2 w2=2 7.4 2013-05-10 14:26:00
1 1988-03-19 12:00:00 rrr = 1.5 y WW = 2 w1=2 w2=2 1.5 2013-05-10 14:26:00
1 1988-03-25 12:00:00 rrr = 14.7 y WW = 2 w1=2 w2=2 14.7 2013-05-10 14:26:00
1 1988-03-26 12:00:00 rrr = 0.3 y WW = 2 w1=1 w2=1 0.3 2013-05-10 14:26:00
1 1988-03-27 12:00:00 rrr = 0.3 y WW = 2 w1=0 w2=0 0.3 2013-05-10 14:26:00
1 1988-03-29 12:00:00 rrr = 2.0 y WW = 2 w1=2 w2=2 2.0 2013-05-10 14:26:00
1 1988-03-31 12:00:00 rrr = 2.0 y WW = 2 w1=2 w2=2 2.0 2013-05-10 14:26:00
1 1988-04-06 12:00:00 rrr = 0.2 y WW = 2 w1=2 w2=2 0.2 2013-05-10 14:26:00
1 1988-04-17 12:00:00 rrr = 12.3 y WW = 2 w1=1 w2=1 12.3 2013-05-10 14:26:00
1 1988-04-18 12:00:00 rrr = 17.8 y WW = 2 w1=2 w2=1 17.8 2013-05-10 14:26:00
1 1988-04-19 12:00:00 rrr = 4.5 y WW = 2 w1=1 w2=1 4.5 2013-05-10 14:26:00
1 1988-04-20 12:00:00 rrr = 5.4 y WW = 2 w1=0 w2=0 5.4 2013-05-10 14:26:00
1 1988-04-21 12:00:00 rrr = 2.3 y WW = 2 w1=2 w2=2 2.3 2013-05-10 14:26:00
1 1988-04-22 12:00:00 rrr = 0.3 y WW = 2 w1=2 w2=2 0.3 2013-05-10 14:26:00
1 1988-04-23 12:00:00 rrr = 5.8 y WW = 10 w1=2 w2=2 5.8 2013-05-10 14:26:00
1 1988-04-24 12:00:00 rrr = 5.7 y WW = 2 w1=0 w2=0 5.7 2013-05-10 14:26:00
1 1988-04-25 12:00:00 rrr = 3.9 y WW = 2 w1=2 w2=2 3.9 2013-05-10 14:26:00
1 1988-05-01 12:00:00 rrr = 0.5 y WW = 2 w1=2 w2=2 0.5 2013-05-10 14:26:00
1 1988-05-12 12:00:00 rrr = 1.0 y WW = 2 w1=2 w2=2 1.0 2013-05-10 14:26:00
1 1988-05-13 12:00:00 rrr = 6.0 y WW = 2 w1=2 w2=2 6.0 2013-05-10 14:26:00
1 1988-05-15 12:00:00 rrr = 0.7 y WW = 2 w1=2 w2=2 0.7 2013-05-10 14:26:00
1 1988-05-21 12:00:00 rrr = 0.8 y WW = 2 w1=2 w2=2 0.8 2013-05-10 14:26:00
1 1988-05-25 12:00:00 rrr = 0.2 y WW = 2 w1=2 w2=2 0.2 2013-05-10 14:26:00
1 1988-06-06 12:00:00 rrr = 27.7 y WW = 2 w1=1 w2=1 27.7 2013-05-10 14:26:00
1 1988-06-07 12:00:00 rrr = 0.2 y WW = 2 w1=2 w2=2 0.2 2013-05-10 14:26:00
1 1988-06-10 12:00:00 rrr = 1.4 y WW = 2 w1=1 w2=1 1.4 2013-05-10 14:26:00
1 1988-06-16 12:00:00 rrr = 7.3 y WW = 2 w1=2 w2=2 7.3 2013-05-10 14:26:00
1 1988-06-20 12:00:00 rrr = 47.8 y WW = 2 w1=2 w2=2 47.8 2013-05-10 14:26:00
1 1988-06-21 12:00:00 rrr = 6.7 y WW = 2 w1=2 w2=2 6.7 2013-05-10 14:26:00
1 1988-06-22 12:00:00 rrr = 7.1 y WW = 2 w1=2 w2=2 7.1 2013-05-10 14:26:00
1 1988-06-23 12:00:00 rrr = 0.9 y WW = 2 w1=1 w2=1 0.9 2013-05-10 14:26:00
1 1988-06-25 12:00:00 rrr = 0.4 y WW = 2 w1=2 w2=2 0.4 2013-05-10 14:26:00
1 1988-07-01 12:00:00 rrr = 8.5 y WW = 2 w1=2 w2=2 8.5 2013-05-10 14:26:00
1 1988-07-02 12:00:00 rrr = 0.4 y WW = 2 w1=1 w2=1 0.4 2013-05-10 14:26:00
1 1988-07-05 12:00:00 rrr = 9.0 y WW = 2 w1=2 w2=2 9.0 2013-05-10 14:26:00
1 1988-07-06 12:00:00 rrr = 0.5 y WW = 2 w1=1 w2=1 0.5 2013-05-10 14:26:00
1 1988-07-07 12:00:00 rrr = 1.0 y WW = 2 w1=1 w2=1 1.0 2013-05-10 14:26:00
1 1988-07-16 12:00:00 rrr = 17.8 y WW = 2 w1=1 w2=1 17.8 2013-05-10 14:26:00
1 1988-07-18 12:00:00 rrr = 15.0 y WW = 2 w1=1 w2=1 15.0 2013-05-10 14:26:00
1 1988-07-21 12:00:00 rrr = 0.1 y WW = 2 w1=0 w2=0 0.1 2013-05-10 14:26:00
1 1988-07-29 12:00:00 rrr = 1.0 y WW = 2 w1=1 w2=1 1.0 2013-05-10 14:26:00
1 1988-08-01 12:00:00 rrr = 8.8 y WW = 3 w1=0 w2=0 8.8 2013-05-10 14:26:00
1 1988-08-05 12:00:00 rrr = 17.0 y WW = 2 w1=2 w2=2 17.0 2013-05-10 14:26:00
1 1988-08-06 12:00:00 rrr = 0.3 y WW = 2 w1=2 w2=2 0.3 2013-05-10 14:26:00
1 1988-08-08 12:00:00 rrr = 23.5 y WW = 2 w1=2 w2=2 23.5 2013-05-10 14:26:00
1 1988-08-16 12:00:00 rrr = 21.3 y WW = 2 w1=2 w2=2 21.3 2013-05-10 14:26:00
1 1988-08-18 12:00:00 rrr = 4.8 y WW = 2 w1=2 w2=2 4.8 2013-05-10 14:26:00
1 1988-08-29 12:00:00 rrr = 16.3 y WW = 2 w1=0 w2=0 16.3 2013-05-10 14:26:00
1 1988-09-06 12:00:00 rrr = 0.3 y WW = 2 w1=2 w2=2 0.3 2013-05-10 14:26:00
1 1988-09-07 12:00:00 rrr = 12.8 y WW = 2 w1=2 w2=2 12.8 2013-05-10 14:26:00
1 1988-09-08 12:00:00 rrr = 13.5 y WW = 2 w1=1 w2=1 13.5 2013-05-10 14:26:00
1 1988-09-10 12:00:00 rrr = 3.0 y WW = 2 w1=2 w2=2 3.0 2013-05-10 14:26:00
1 1988-09-12 12:00:00 rrr = 4.0 y WW = 2 w1=2 w2=2 4.0 2013-05-10 14:26:00
1 1988-09-26 12:00:00 rrr = 8.2 y WW = 2 w1=2 w2=2 8.2 2013-05-10 14:26:00
1 1988-09-29 12:00:00 rrr = 0.3 y WW = 2 w1=0 w2=0 0.3 2013-05-10 14:26:00
1 1988-10-01 12:00:00 rrr = 3.8 y WW = 2 w1=2 w2=2 3.8 2013-05-10 14:26:00
1 1988-10-14 12:00:00 rrr = 1.2 y WW = 2 w1=1 w2=1 1.2 2013-05-10 14:26:00
1 1988-10-25 12:00:00 rrr = 2.5 y WW = 2 w1=2 w2=2 2.5 2013-05-10 14:26:00
1 1988-10-31 12:00:00 rrr = 5.8 y WW = 2 w1=2 w2=2 5.8 2013-05-10 14:27:00
1 1988-11-19 12:00:00 rrr = 3.2 y WW = 2 w1=1 w2=1 3.2 2013-05-10 14:27:00
1 1988-11-26 12:00:00 rrr = 0.7 y WW = 2 w1=2 w2=2 0.7 2013-05-10 14:27:00
1 1988-12-05 12:00:00 rrr = 4.0 y WW = 2 w1=2 w2=2 4.0 2013-05-10 14:27:00
1 1988-12-14 12:00:00 rrr = 3.6 y WW = 2 w1=2 w2=2 3.6 2013-05-10 14:27:00
1 1988-12-19 12:00:00 rrr = 18.5 y WW = 2 w1=2 w2=2 18.5 2013-05-10 14:27:00
1 1988-12-26 12:00:00 rrr = 1.8 y WW = 2 w1=2 w2=2 1.8 2013-05-10 14:27:00
1 1988-12-30 12:00:00 rrr = 3.1 y WW = 2 w1=1 w2=1 3.1 2013-05-10 14:27:00
1 1989-03-13 12:00:00 rrr = 0.6 y WW = 2 w1=2 w2=2 0.6 2013-05-10 14:27:00
1 1989-03-16 12:00:00 rrr = 0.5 y WW = 2 w1=2 w2=2 0.5 2013-05-10 14:27:00
1 1989-03-22 12:00:00 rrr = 1.5 y WW = 2 w1=2 w2=2 1.5 2013-05-10 14:27:00
1 1989-04-05 12:00:00 rrr = 1.9 y WW = 2 w1=2 w2=2 1.9 2013-05-10 14:27:00
1 1989-04-10 12:00:00 rrr = 4.4 y WW = 2 w1=2 w2=2 4.4 2013-05-10 14:27:00
1 1989-04-11 12:00:00 rrr = 4.9 y WW = 2 w1=2 w2=2 4.9 2013-05-10 14:27:00
1 1989-04-12 12:00:00 rrr = 4.2 y WW = 2 w1=2 w2=2 4.2 2013-05-10 14:27:00
1 1989-04-13 12:00:00 rrr = 2.2 y WW = 10 w1=2 w2=2 2.2 2013-05-10 14:27:00
1 1989-04-20 12:00:00 rrr = 5.7 y WW = 2 w1=2 w2=1 5.7 2013-05-10 14:27:00
1 1989-04-26 12:00:00 rrr = 1.8 y WW = 2 w1=2 w2=2 1.8 2013-05-10 14:27:00
1 1989-04-27 12:00:00 rrr = 4.8 y WW = 2 w1=0 w2=0 4.8 2013-05-10 14:27:00
1 1989-05-02 12:00:00 rrr = 4.1 y WW = 2 w1=2 w2=2 4.1 2013-05-10 14:27:00
1 1989-05-09 12:00:00 rrr = 1.4 y WW = 2 w1=1 w2=1 1.4 2013-05-10 14:27:00
1 1989-06-24 12:00:00 rrr = 7.8 y WW = 2 w1=2 w2=2 7.8 2013-05-10 14:27:00
1 1989-08-07 12:00:00 rrr = 33.1 y WW = 2 w1=1 w2=1 33.1 2013-05-10 14:27:00
1 1989-09-08 18:00:00 rrr = 0.2 y WW = 2 w1=2 w2=2 0.2 2013-05-10 14:27:00
1 1989-12-12 12:00:00 rrr = 0.2 y WW = 2 w1=1 w2=0 0.2 2013-05-10 14:27:00
1 1989-12-28 12:00:00 rrr = 0.1 y WW = 2 w1=1 w2=0 0.1 2013-05-10 14:27:00
1 1990-03-07 18:00:00 rrr = 0.2 y WW = 2 w1=2 w2=2 0.2 2013-05-10 14:27:00
1 1990-04-04 18:00:00 rrr = 0.5 y WW = 2 w1=2 w2=2 0.5 2013-05-10 14:27:00
Errores del Nivel 494
Nivel Fecha del Dato Descripción Información Error Fecha Ingreso
2 1954-04-04 21:00:00 Variación horaria de Intensidad del viento fuera de rango (1 hora Antes) 50 - 5 2013-04-10 15:30:00
2 1954-04-04 22:00:00 Variación horaria de Intensidad del viento fuera de rango (1 hora Antes) 0 - 50 2013-04-10 15:30:00
2 1954-06-22 18:00:00 Variación horaria de Intensidad del viento fuera de rango (1 hora Antes) 50 - 5 2013-04-18 14:46:00
2 1954-06-22 19:00:00 Variación horaria de Intensidad del viento fuera de rango (1 hora Antes) 8 - 50 2013-04-18 14:46:00
2 1971-08-12 16:00:00 Variación horaria de Intensidad del viento fuera de rango (1 hora Antes) 99 - 4 2013-05-11 01:00:00
2 1971-08-12 16:00:00 Variación Tri-horaria de Intensidad del viento fuera de rango (3 hora Antes) 99 - 0 2013-05-11 01:00:00
2 1971-08-12 17:00:00 Variación horaria de Intensidad del viento fuera de rango (1 hora Antes) 6 - 99 2013-05-11 01:00:00
2 1971-08-12 19:00:00 Variación Tri-horaria de Intensidad del viento fuera de rango (3 hora Antes) 8 - 99 2013-05-11 01:00:00
2 1973-02-27 22:00:00 Variación horaria de Intensidad del viento fuera de rango (1 hora Antes) 4 - 42 2013-05-11 01:07:00
2 1974-09-04 19:00:00 Variación horaria de Intensidad del viento fuera de rango (1 hora Antes) 10 - 41 2013-05-11 01:14:00
2 1979-02-03 19:00:00 Variación horaria de Intensidad del viento fuera de rango (1 hora Antes) 99 - 8 2013-05-11 01:31:00
2 1979-02-03 19:00:00 Variación Tri-horaria de Intensidad del viento fuera de rango (3 hora Antes) 99 - 5 2013-05-11 01:31:00
2 1979-02-03 20:00:00 Variación horaria de Intensidad del viento fuera de rango (1 hora Antes) 14 - 99 2013-05-11 01:31:00
2 1954-03-04 00:00:00 Temperatura 19.5 del 03-03-1954 23:00, Mayor que la Máxima 19.4 04-03-1954 00:00 19.5 -- 19.4 2013-04-10 13:21:00
2 1954-04-19 00:00:00 Temperatura 16.5 del 18-04-1954 18:00, Mayor que la Máxima 16.0 19-04-1954 00:00 16.5 -- 16.0 2013-04-19 15:50:00
2 1954-04-21 00:00:00 Temperatura 16.1 del 20-04-1954 17:00, Mayor que la Máxima 8.1 21-04-1954 00:00 16.1 -- 8.1 2013-04-19 14:58:00
2 1954-05-01 00:00:00 Temperatura 12.8 del 30-04-1954 20:00, Mayor que la Máxima 12.5 01-05-1954 00:00 12.8 -- 12.5 2013-04-19 14:40:00
2 1954-07-31 00:00:00 Temperatura 10.0 del 30-07-1954 17:00, Mayor que la Máxima 9.8 31-07-1954 00:00 10.0 -- 9.8 2013-04-30 17:37:00
2 1954-08-03 00:00:00 Temperatura 10.3 del 02-08-1954 20:00, Mayor que la Máxima 10.2 03-08-1954 00:00 10.3 -- 10.2 2013-04-30 18:50:00
2 1954-09-02 00:00:00 Temperatura 11.5 del 01-09-1954 19:00, Mayor que la Máxima 7.5 02-09-1954 00:00 11.5 -- 7.5 2013-04-30 19:04:00
2 1954-09-21 00:00:00 Temperatura 19.5 del 20-09-1954 17:00, Mayor que la Máxima 15.2 21-09-1954 00:00 19.5 -- 15.2 2013-04-30 19:03:00
2 1954-10-07 00:00:00 Temperatura 11.1 del 06-10-1954 17:00, Mayor que la Máxima 10.5 07-10-1954 00:00 11.1 -- 10.5 2013-05-10 15:16:00
2 1954-10-18 00:00:00 Temperatura 14.0 del 17-10-1954 20:00, Mayor que la Máxima 13.6 18-10-1954 00:00 14.0 -- 13.6 2013-05-10 15:23:00
2 1954-11-05 00:00:00 Temperatura 15.2 del 04-11-1954 17:00, Mayor que la Máxima 15.1 05-11-1954 00:00 15.2 -- 15.1 2013-05-10 16:31:00
2 1954-12-16 00:00:00 Temperatura 16.3 del 15-12-1954 18:00, Mayor que la Máxima 16.1 16-12-1954 00:00 16.3 -- 16.1 2013-05-10 18:55:00
2 1954-12-22 00:00:00 Temperatura 19.2 del 21-12-1954 19:00, Mayor que la Máxima 19.1 22-12-1954 00:00 19.2 -- 19.1 2013-05-10 19:00:00
2 1955-01-03 00:00:00 Temperatura 20.5 del 02-01-1955 21:00, Mayor que la Máxima 20.3 03-01-1955 00:00 20.5 -- 20.3 2013-05-11 02:16:00
2 1955-03-02 00:00:00 Temperatura 17.5 del 01-03-1955 18:00, Mayor que la Máxima 17.2 02-03-1955 00:00 17.5 -- 17.2 2013-05-11 02:16:00
2 1955-03-10 00:00:00 Temperatura 22.3 del 09-03-1955 21:00, Mayor que la Máxima 22.1 10-03-1955 00:00 22.3 -- 22.1 2013-05-11 02:16:00
2 1955-03-11 00:00:00 Temperatura 23.0 del 10-03-1955 21:00, Mayor que la Máxima 22.3 11-03-1955 00:00 23.0 -- 22.3 2013-05-11 02:16:00
2 1955-03-15 00:00:00 Temperatura 16.2 del 14-03-1955 18:00, Mayor que la Máxima 16.1 15-03-1955 00:00 16.2 -- 16.1 2013-05-11 02:16:00
2 1955-03-24 00:00:00 Temperatura 18.6 del 23-03-1955 18:00, Mayor que la Máxima 18.0 24-03-1955 00:00 18.6 -- 18.0 2013-05-11 02:16:00
2 1955-03-30 00:00:00 Temperatura 15.3 del 29-03-1955 21:00, Mayor que la Máxima 15.2 30-03-1955 00:00 15.3 -- 15.2 2013-05-11 02:16:00
2 1955-04-08 00:00:00 Temperatura 14.8 del 07-04-1955 15:00, Mayor que la Máxima 14.0 08-04-1955 00:00 14.8 -- 14.0 2013-05-11 02:16:00
2 1955-04-28 00:00:00 Temperatura 14.6 del 27-04-1955 18:00, Mayor que la Máxima 14.0 28-04-1955 00:00 14.6 -- 14.0 2013-05-11 02:16:00
2 1955-05-01 00:00:00 Temperatura 11.3 del 30-04-1955 18:00, Mayor que la Máxima 10.8 01-05-1955 00:00 11.3 -- 10.8 2013-05-11 02:16:00
2 1955-12-12 00:00:00 Temperatura 16.8 del 11-12-1955 21:00, Mayor que la Máxima 16.0 12-12-1955 00:00 16.8 -- 16.0 2013-05-11 02:16:00
2 1957-01-23 00:00:00 Temperatura 16.7 del 22-01-1957 18:00, Mayor que la Máxima 16.5 23-01-1957 00:00 16.7 -- 16.5 2013-05-11 02:16:00
2 1957-01-31 00:00:00 Temperatura 21.5 del 30-01-1957 18:00, Mayor que la Máxima 21.4 31-01-1957 00:00 21.5 -- 21.4 2013-05-11 02:16:00
2 1957-02-16 00:00:00 Temperatura 22.0 del 15-02-1957 18:00, Mayor que la Máxima 15.6 16-02-1957 00:00 22.0 -- 15.6 2013-05-11 02:16:00
2 1957-02-22 00:00:00 Temperatura 20.3 del 21-02-1957 21:00, Mayor que la Máxima 20.1 22-02-1957 00:00 20.3 -- 20.1 2013-05-11 02:16:00
2 1957-04-07 00:00:00 Temperatura 21.3 del 06-04-1957 18:00, Mayor que la Máxima 21.2 07-04-1957 00:00 21.3 -- 21.2 2013-05-11 02:16:00
2 1957-06-02 00:00:00 Temperatura 8.3 del 01-06-1957 15:00, Mayor que la Máxima 8.1 02-06-1957 00:00 8.3 -- 8.1 2013-05-11 02:16:00
2 1957-06-08 00:00:00 Temperatura 13.2 del 07-06-1957 18:00, Mayor que la Máxima 13.1 08-06-1957 00:00 13.2 -- 13.1 2013-05-11 02:16:00
2 1957-08-23 00:00:00 Temperatura 11.0 del 22-08-1957 18:00, Mayor que la Máxima 9.8 23-08-1957 00:00 11.0 -- 9.8 2013-05-11 02:16:00
2 1957-09-12 00:00:00 Temperatura 12.1 del 11-09-1957 21:00, Mayor que la Máxima 11.8 12-09-1957 00:00 12.1 -- 11.8 2013-05-11 02:16:00
2 1957-10-08 00:00:00 Temperatura 11.3 del 07-10-1957 18:00, Mayor que la Máxima 10.5 08-10-1957 00:00 11.3 -- 10.5 2013-05-11 02:16:00
2 1957-11-17 00:00:00 Temperatura 16.5 del 16-11-1957 18:00, Mayor que la Máxima 16.3 17-11-1957 00:00 16.5 -- 16.3 2013-05-11 02:16:00
2 1957-12-15 00:00:00 Temperatura 14.9 del 14-12-1957 18:00, Mayor que la Máxima 14.2 15-12-1957 00:00 14.9 -- 14.2 2013-05-11 02:16:00
2 1958-03-01 00:00:00 Temperatura 20.5 del 28-02-1958 18:00, Mayor que la Máxima 19.3 01-03-1958 00:00 20.5 -- 19.3 2013-05-11 02:16:00
2 1958-04-26 00:00:00 Temperatura 14.3 del 25-04-1958 18:00, Mayor que la Máxima 14.1 26-04-1958 00:00 14.3 -- 14.1 2013-05-11 02:16:00
2 1961-01-04 00:00:00 Temperatura 18.0 del 03-01-1961 21:00, Mayor que la Máxima 17.8 04-01-1961 00:00 18.0 -- 17.8 2013-05-11 02:17:00
2 1961-02-26 00:00:00 Temperatura 15.0 del 25-02-1961 18:00, Mayor que la Máxima 14.8 26-02-1961 00:00 15.0 -- 14.8 2013-05-11 02:17:00
2 1961-02-28 00:00:00 Temperatura 20.0 del 27-02-1961 21:00, Mayor que la Máxima 3.0 28-02-1961 00:00 20.0 -- 3.0 2013-05-11 02:17:00
2 1961-03-03 00:00:00 Temperatura 17.0 del 02-03-1961 18:00, Mayor que la Máxima 15.0 03-03-1961 00:00 17.0 -- 15.0 2013-05-11 02:17:00
2 1961-03-18 00:00:00 Temperatura 15.5 del 17-03-1961 21:00, Mayor que la Máxima 5.5 18-03-1961 00:00 15.5 -- 5.5 2013-05-11 02:17:00
2 1961-03-29 00:00:00 Temperatura 18.0 del 28-03-1961 18:00, Mayor que la Máxima 15.3 29-03-1961 00:00 18.0 -- 15.3 2013-05-11 02:17:00
2 1961-05-05 00:00:00 Temperatura 13.4 del 04-05-1961 18:00, Mayor que la Máxima 12.6 05-05-1961 00:00 13.4 -- 12.6 2013-05-11 02:17:00
2 1961-05-12 00:00:00 Temperatura 10.2 del 11-05-1961 21:00, Mayor que la Máxima 10.0 12-05-1961 00:00 10.2 -- 10.0 2013-05-11 02:17:00
2 1961-05-25 00:00:00 Temperatura 15.6 del 24-05-1961 18:00, Mayor que la Máxima 15.0 25-05-1961 00:00 15.6 -- 15.0 2013-05-11 02:17:00
2 1961-06-16 00:00:00 Temperatura 7.1 del 15-06-1961 18:00, Mayor que la Máxima 7.0 16-06-1961 00:00 7.1 -- 7.0 2013-05-11 02:17:00
2 1961-07-18 00:00:00 Temperatura 10.6 del 17-07-1961 15:00, Mayor que la Máxima 9.1 18-07-1961 00:00 10.6 -- 9.1 2013-05-11 02:18:00
2 1961-08-10 00:00:00 Temperatura 14.0 del 09-08-1961 21:00, Mayor que la Máxima 13.0 10-08-1961 00:00 14.0 -- 13.0 2013-05-11 02:18:00
2 1961-08-16 00:00:00 Temperatura 11.0 del 15-08-1961 18:00, Mayor que la Máxima 10.0 16-08-1961 00:00 11.0 -- 10.0 2013-05-11 02:18:00
2 1961-10-14 00:00:00 Temperatura 13.1 del 13-10-1961 21:00, Mayor que la Máxima 13.0 14-10-1961 00:00 13.1 -- 13.0 2013-05-11 02:18:00
2 1961-10-21 00:00:00 Temperatura 11.0 del 20-10-1961 18:00, Mayor que la Máxima 10.9 21-10-1961 00:00 11.0 -- 10.9 2013-05-11 02:18:00
2 1961-11-14 00:00:00 Temperatura 13.0 del 13-11-1961 18:00, Mayor que la Máxima 12.0 14-11-1961 00:00 13.0 -- 12.0 2013-05-11 02:18:00
2 1961-12-29 00:00:00 Temperatura 22.5 del 28-12-1961 21:00, Mayor que la Máxima 21.0 29-12-1961 00:00 22.5 -- 21.0 2013-05-11 02:18:00
2 1961-12-30 00:00:00 Temperatura 21.0 del 29-12-1961 18:00, Mayor que la Máxima 2.5 30-12-1961 00:00 21.0 -- 2.5 2013-05-11 02:18:00
2 1962-01-01 00:00:00 Temperatura 12.0 del 31-12-1961 15:00, Mayor que la Máxima 1.3 01-01-1962 00:00 12.0 -- 1.3 2013-05-11 02:18:00
2 1962-03-21 00:00:00 Temperatura 19.0 del 20-03-1962 18:00, Mayor que la Máxima 18.6 21-03-1962 00:00 19.0 -- 18.6 2013-05-11 02:18:00
2 1962-04-01 00:00:00 Temperatura 16.0 del 31-03-1962 18:00, Mayor que la Máxima 8.0 01-04-1962 00:00 16.0 -- 8.0 2013-05-11 02:18:00
2 1962-04-22 00:00:00 Temperatura 18.5 del 21-04-1962 21:00, Mayor que la Máxima 18.0 22-04-1962 00:00 18.5 -- 18.0 2013-05-11 02:18:00
2 1962-04-24 00:00:00 Temperatura 16.0 del 23-04-1962 18:00, Mayor que la Máxima 15.0 24-04-1962 00:00 16.0 -- 15.0 2013-05-11 02:18:00
2 1962-05-13 00:00:00 Temperatura 14.2 del 12-05-1962 18:00, Mayor que la Máxima 14.0 13-05-1962 00:00 14.2 -- 14.0 2013-05-11 02:18:00
2 1962-07-24 00:00:00 Temperatura 13.0 del 23-07-1962 21:00, Mayor que la Máxima 12.0 24-07-1962 00:00 13.0 -- 12.0 2013-05-11 02:18:00
2 1962-09-17 00:00:00 Temperatura 19.0 del 16-09-1962 18:00, Mayor que la Máxima 14.0 17-09-1962 00:00 19.0 -- 14.0 2013-05-11 02:18:00
2 1962-10-02 00:00:00 Temperatura 12.0 del 01-10-1962 18:00, Mayor que la Máxima 10.0 02-10-1962 00:00 12.0 -- 10.0 2013-05-11 02:18:00
2 1962-11-17 00:00:00 Temperatura 24.0 del 16-11-1962 18:00, Mayor que la Máxima 23.0 17-11-1962 00:00 24.0 -- 23.0 2013-05-11 02:18:00
2 1962-12-09 00:00:00 Temperatura 19.2 del 08-12-1962 15:00, Mayor que la Máxima 19.1 09-12-1962 00:00 19.2 -- 19.1 2013-05-11 02:18:00
2 1962-12-16 00:00:00 Temperatura 20.0 del 15-12-1962 18:00, Mayor que la Máxima 19.5 16-12-1962 00:00 20.0 -- 19.5 2013-05-11 02:18:00
2 1963-01-18 00:00:00 Temperatura 20.2 del 17-01-1963 21:00, Mayor que la Máxima 19.8 18-01-1963 00:00 20.2 -- 19.8 2013-05-11 02:18:00
2 1963-01-29 00:00:00 Temperatura 16.0 del 28-01-1963 18:00, Mayor que la Máxima 15.0 29-01-1963 00:00 16.0 -- 15.0 2013-05-11 02:18:00
2 1963-02-07 00:00:00 Temperatura 18.3 del 06-02-1963 21:00, Mayor que la Máxima 17.7 07-02-1963 00:00 18.3 -- 17.7 2013-05-11 02:18:00
2 1963-02-21 00:00:00 Temperatura 26.0 del 20-02-1963 21:00, Mayor que la Máxima 25.0 21-02-1963 00:00 26.0 -- 25.0 2013-05-11 02:18:00
2 1963-02-23 00:00:00 Temperatura 26.3 del 22-02-1963 21:00, Mayor que la Máxima 21.0 23-02-1963 00:00 26.3 -- 21.0 2013-05-11 02:18:00
2 1963-03-04 00:00:00 Temperatura 28.5 del 03-03-1963 18:00, Mayor que la Máxima 23.6 04-03-1963 00:00 28.5 -- 23.6 2013-05-11 02:18:00
2 1963-08-20 00:00:00 Temperatura 12.9 del 19-08-1963 21:00, Mayor que la Máxima 12.7 20-08-1963 00:00 12.9 -- 12.7 2013-05-11 02:18:00
2 1963-09-06 00:00:00 Temperatura 9.9 del 05-09-1963 18:00, Mayor que la Máxima 9.7 06-09-1963 00:00 9.9 -- 9.7 2013-05-11 02:18:00
2 1963-09-07 00:00:00 Temperatura 13.0 del 06-09-1963 18:00, Mayor que la Máxima 12.0 07-09-1963 00:00 13.0 -- 12.0 2013-05-11 02:18:00
2 1963-09-18 00:00:00 Temperatura 15.9 del 17-09-1963 18:00, Mayor que la Máxima 14.5 18-09-1963 00:00 15.9 -- 14.5 2013-05-11 02:18:00
2 1963-09-19 00:00:00 Temperatura 14.3 del 18-09-1963 15:00, Mayor que la Máxima 14.2 19-09-1963 00:00 14.3 -- 14.2 2013-05-11 02:18:00
2 1963-10-09 00:00:00 Temperatura 12.7 del 08-10-1963 21:00, Mayor que la Máxima 1.6 09-10-1963 00:00 12.7 -- 1.6 2013-05-11 02:18:00
2 1963-11-06 00:00:00 Temperatura 12.5 del 05-11-1963 21:00, Mayor que la Máxima 11.6 06-11-1963 00:00 12.5 -- 11.6 2013-05-11 02:18:00
2 1963-11-10 00:00:00 Temperatura 16.0 del 09-11-1963 15:00, Mayor que la Máxima 9.9 10-11-1963 00:00 16.0 -- 9.9 2013-05-11 02:18:00
2 1963-11-12 00:00:00 Temperatura 14.4 del 11-11-1963 21:00, Mayor que la Máxima 14.1 12-11-1963 00:00 14.4 -- 14.1 2013-05-11 02:18:00
2 1963-11-27 00:00:00 Temperatura 15.4 del 26-11-1963 18:00, Mayor que la Máxima 15.1 27-11-1963 00:00 15.4 -- 15.1 2013-05-11 02:18:00
2 1963-12-02 00:00:00 Temperatura 17.0 del 01-12-1963 21:00, Mayor que la Máxima 16.8 02-12-1963 00:00 17.0 -- 16.8 2013-05-11 02:18:00
2 1963-12-13 00:00:00 Temperatura 18.8 del 12-12-1963 15:00, Mayor que la Máxima 17.0 13-12-1963 00:00 18.8 -- 17.0 2013-05-11 02:18:00
2 1963-12-18 00:00:00 Temperatura 15.4 del 17-12-1963 21:00, Mayor que la Máxima 15.2 18-12-1963 00:00 15.4 -- 15.2 2013-05-11 02:18:00
2 1964-08-06 00:00:00 Temperatura 12.1 del 05-08-1964 18:00, Mayor que la Máxima 12.0 06-08-1964 00:00 12.1 -- 12.0 2013-05-11 02:18:00
2 1964-08-10 00:00:00 Temperatura 9.5 del 09-08-1964 21:00, Mayor que la Máxima 9.0 10-08-1964 00:00 9.5 -- 9.0 2013-05-11 02:18:00
2 1964-08-27 00:00:00 Temperatura 8.6 del 26-08-1964 21:00, Mayor que la Máxima 8.5 27-08-1964 00:00 8.6 -- 8.5 2013-05-11 02:18:00
2 1964-09-05 00:00:00 Temperatura 9.3 del 04-09-1964 21:00, Mayor que la Máxima 9.1 05-09-1964 00:00 9.3 -- 9.1 2013-05-11 02:18:00
2 1964-09-06 00:00:00 Temperatura 10.0 del 05-09-1964 18:00, Mayor que la Máxima 9.0 06-09-1964 00:00 10.0 -- 9.0 2013-05-11 02:18:00
2 1964-09-11 00:00:00 Temperatura 13.0 del 10-09-1964 21:00, Mayor que la Máxima 12.9 11-09-1964 00:00 13.0 -- 12.9 2013-05-11 02:18:00
2 1964-09-19 00:00:00 Temperatura 14.0 del 18-09-1964 18:00, Mayor que la Máxima 13.7 19-09-1964 00:00 14.0 -- 13.7 2013-05-11 02:18:00
2 1964-10-04 00:00:00 Temperatura 14.0 del 03-10-1964 21:00, Mayor que la Máxima 13.6 04-10-1964 00:00 14.0 -- 13.6 2013-05-11 02:18:00
2 1964-10-15 00:00:00 Temperatura 16.1 del 14-10-1964 18:00, Mayor que la Máxima 16.0 15-10-1964 00:00 16.1 -- 16.0 2013-05-11 02:18:00
2 1964-10-21 00:00:00 Temperatura 15.0 del 20-10-1964 21:00, Mayor que la Máxima 12.0 21-10-1964 00:00 15.0 -- 12.0 2013-05-11 02:18:00
2 1964-10-23 00:00:00 Temperatura 17.4 del 22-10-1964 18:00, Mayor que la Máxima 17.0 23-10-1964 00:00 17.4 -- 17.0 2013-05-11 02:18:00
2 1964-10-25 00:00:00 Temperatura 10.1 del 24-10-1964 15:00, Mayor que la Máxima 8.5 25-10-1964 00:00 10.1 -- 8.5 2013-05-11 02:18:00
2 1964-11-07 00:00:00 Temperatura 14.2 del 06-11-1964 15:00, Mayor que la Máxima 14.0 07-11-1964 00:00 14.2 -- 14.0 2013-05-11 02:18:00
2 1964-11-19 00:00:00 Temperatura 12.2 del 18-11-1964 21:00, Mayor que la Máxima 12.0 19-11-1964 00:00 12.2 -- 12.0 2013-05-11 02:18:00
2 1964-11-20 00:00:00 Temperatura 16.0 del 19-11-1964 18:00, Mayor que la Máxima 15.9 20-11-1964 00:00 16.0 -- 15.9 2013-05-11 02:18:00
2 1964-11-25 00:00:00 Temperatura 20.9 del 24-11-1964 18:00, Mayor que la Máxima 20.0 25-11-1964 00:00 20.9 -- 20.0 2013-05-11 02:18:00
2 1964-11-27 00:00:00 Temperatura 16.2 del 26-11-1964 15:00, Mayor que la Máxima 15.9 27-11-1964 00:00 16.2 -- 15.9 2013-05-11 02:18:00
2 1965-02-01 00:00:00 Temperatura 13.8 del 31-01-1965 15:00, Mayor que la Máxima 13.6 01-02-1965 00:00 13.8 -- 13.6 2013-05-11 02:19:00
2 1965-02-03 00:00:00 Temperatura 17.5 del 02-02-1965 21:00, Mayor que la Máxima 14.0 03-02-1965 00:00 17.5 -- 14.0 2013-05-11 02:19:00
2 1965-03-12 00:00:00 Temperatura 19.4 del 11-03-1965 18:00, Mayor que la Máxima 18.3 12-03-1965 00:00 19.4 -- 18.3 2013-05-11 02:19:00
2 1965-03-23 00:00:00 Temperatura 19.1 del 22-03-1965 21:00, Mayor que la Máxima 19.0 23-03-1965 00:00 19.1 -- 19.0 2013-05-11 02:19:00
2 1965-03-28 00:00:00 Temperatura 21.3 del 27-03-1965 21:00, Mayor que la Máxima 20.8 28-03-1965 00:00 21.3 -- 20.8 2013-05-11 02:19:00
2 1965-09-04 00:00:00 Temperatura 10.4 del 03-09-1965 21:00, Mayor que la Máxima 10.0 04-09-1965 00:00 10.4 -- 10.0 2013-05-11 02:19:00
2 1965-12-01 00:00:00 Temperatura 14.8 del 30-11-1965 18:00, Mayor que la Máxima 14.6 01-12-1965 00:00 14.8 -- 14.6 2013-05-11 02:19:00
2 1965-12-05 00:00:00 Temperatura 12.0 del 04-12-1965 18:00, Mayor que la Máxima 11.0 05-12-1965 00:00 12.0 -- 11.0 2013-05-11 02:19:00
2 1965-12-20 00:00:00 Temperatura 14.0 del 19-12-1965 21:00, Mayor que la Máxima 12.0 20-12-1965 00:00 14.0 -- 12.0 2013-05-11 02:19:00
2 1965-12-24 00:00:00 Temperatura 20.8 del 23-12-1965 18:00, Mayor que la Máxima 20.0 24-12-1965 00:00 20.8 -- 20.0 2013-05-11 02:19:00
2 1966-04-10 00:00:00 Temperatura 13.3 del 09-04-1966 15:00, Mayor que la Máxima 13.0 10-04-1966 00:00 13.3 -- 13.0 2013-05-11 02:19:00
2 1966-05-18 00:00:00 Temperatura 17.1 del 17-05-1966 15:00, Mayor que la Máxima 16.0 18-05-1966 00:00 17.1 -- 16.0 2013-05-11 02:19:00
2 1966-05-25 00:00:00 Temperatura 16.2 del 24-05-1966 18:00, Mayor que la Máxima 16.0 25-05-1966 00:00 16.2 -- 16.0 2013-05-11 02:19:00
2 1966-06-05 00:00:00 Temperatura 6.5 del 04-06-1966 18:00, Mayor que la Máxima 6.0 05-06-1966 00:00 6.5 -- 6.0 2013-05-11 02:19:00
2 1966-06-22 00:00:00 Temperatura 11.0 del 21-06-1966 21:00, Mayor que la Máxima 10.3 22-06-1966 00:00 11.0 -- 10.3 2013-05-11 02:19:00
2 1966-06-27 00:00:00 Temperatura 6.4 del 26-06-1966 18:00, Mayor que la Máxima 6.0 27-06-1966 00:00 6.4 -- 6.0 2013-05-11 02:19:00
2 1966-06-29 00:00:00 Temperatura 7.4 del 28-06-1966 15:00, Mayor que la Máxima 7.0 29-06-1966 00:00 7.4 -- 7.0 2013-05-11 02:19:00
2 1966-10-13 00:00:00 Temperatura 10.4 del 12-10-1966 18:00, Mayor que la Máxima 10.3 13-10-1966 00:00 10.4 -- 10.3 2013-05-11 02:19:00
2 1966-11-04 00:00:00 Temperatura 21.0 del 03-11-1966 21:00, Mayor que la Máxima 20.1 04-11-1966 00:00 21.0 -- 20.1 2013-05-11 02:19:00
2 1967-02-17 00:00:00 Temperatura 15.3 del 16-02-1967 18:00, Mayor que la Máxima 14.0 17-02-1967 00:00 15.3 -- 14.0 2013-05-11 02:19:00
2 1967-03-01 00:00:00 Temperatura 21.6 del 28-02-1967 21:00, Mayor que la Máxima 21.5 01-03-1967 00:00 21.6 -- 21.5 2013-05-11 02:19:00
2 1967-03-07 00:00:00 Temperatura 18.0 del 06-03-1967 21:00, Mayor que la Máxima 15.0 07-03-1967 00:00 18.0 -- 15.0 2013-05-11 02:19:00
2 1967-03-25 00:00:00 Temperatura 17.0 del 24-03-1967 18:00, Mayor que la Máxima 16.9 25-03-1967 00:00 17.0 -- 16.9 2013-05-11 02:19:00
2 1967-03-31 00:00:00 Temperatura 20.7 del 30-03-1967 15:00, Mayor que la Máxima 14.6 31-03-1967 00:00 20.7 -- 14.6 2013-05-11 02:19:00
2 1967-04-14 00:00:00 Temperatura 19.0 del 14-04-1967 00:00, Mayor que la Máxima 15.2 14-04-1967 00:00 19.0 -- 15.2 2013-05-11 02:19:00
2 1967-04-15 00:00:00 Temperatura 16.0 del 14-04-1967 18:00, Mayor que la Máxima 12.8 15-04-1967 00:00 16.0 -- 12.8 2013-05-11 02:19:00
2 1967-05-07 00:00:00 Temperatura 16.4 del 06-05-1967 15:00, Mayor que la Máxima 15.2 07-05-1967 00:00 16.4 -- 15.2 2013-05-11 02:19:00
2 1967-06-17 00:00:00 Temperatura 17.0 del 17-06-1967 00:00, Mayor que la Máxima 9.4 17-06-1967 00:00 17.0 -- 9.4 2013-05-11 02:19:00
2 1967-07-19 00:00:00 Temperatura 8.0 del 18-07-1967 21:00, Mayor que la Máxima 7.8 19-07-1967 00:00 8.0 -- 7.8 2013-05-11 02:19:00
2 1967-07-29 00:00:00 Temperatura 10.0 del 28-07-1967 21:00, Mayor que la Máxima 8.0 29-07-1967 00:00 10.0 -- 8.0 2013-05-11 02:19:00
2 1967-08-28 00:00:00 Temperatura 8.0 del 27-08-1967 18:00, Mayor que la Máxima 7.0 28-08-1967 00:00 8.0 -- 7.0 2013-05-11 02:19:00
2 1967-10-18 00:00:00 Temperatura 16.6 del 17-10-1967 21:00, Mayor que la Máxima 16.4 18-10-1967 00:00 16.6 -- 16.4 2013-05-11 02:19:00
2 1967-12-11 00:00:00 Temperatura 26.0 del 10-12-1967 18:00, Mayor que la Máxima 24.0 11-12-1967 00:00 26.0 -- 24.0 2013-05-11 02:19:00
2 1967-12-18 00:00:00 Temperatura 17.6 del 17-12-1967 21:00, Mayor que la Máxima 16.8 18-12-1967 00:00 17.6 -- 16.8 2013-05-11 02:19:00
2 1967-12-24 00:00:00 Temperatura 17.6 del 23-12-1967 18:00, Mayor que la Máxima 6.0 24-12-1967 00:00 17.6 -- 6.0 2013-05-11 02:19:00
2 1968-01-10 00:00:00 Temperatura 18.6 del 09-01-1968 18:00, Mayor que la Máxima 18.5 10-01-1968 00:00 18.6 -- 18.5 2013-05-11 02:19:00
2 1968-01-18 00:00:00 Temperatura 17.0 del 17-01-1968 18:00, Mayor que la Máxima 16.1 18-01-1968 00:00 17.0 -- 16.1 2013-05-11 02:19:00
2 1968-03-01 00:00:00 Temperatura 15.4 del 29-02-1968 15:00, Mayor que la Máxima 14.7 01-03-1968 00:00 15.4 -- 14.7 2013-05-11 02:19:00
2 1968-04-30 00:00:00 Temperatura 13.0 del 29-04-1968 15:00, Mayor que la Máxima 1.4 30-04-1968 00:00 13.0 -- 1.4 2013-05-11 02:20:00
2 1968-05-08 00:00:00 Temperatura 15.0 del 07-05-1968 18:00, Mayor que la Máxima 14.6 08-05-1968 00:00 15.0 -- 14.6 2013-05-11 02:20:00
2 1968-05-28 00:00:00 Temperatura 15.0 del 27-05-1968 18:00, Mayor que la Máxima 14.8 28-05-1968 00:00 15.0 -- 14.8 2013-05-11 02:20:00
2 1968-06-13 00:00:00 Temperatura 11.2 del 12-06-1968 21:00, Mayor que la Máxima 11.0 13-06-1968 00:00 11.2 -- 11.0 2013-05-11 02:20:00
2 1968-06-19 00:00:00 Temperatura 10.0 del 18-06-1968 21:00, Mayor que la Máxima 9.8 19-06-1968 00:00 10.0 -- 9.8 2013-05-11 02:20:00
2 1968-09-10 00:00:00 Temperatura 7.8 del 09-09-1968 15:00, Mayor que la Máxima 7.2 10-09-1968 00:00 7.8 -- 7.2 2013-05-11 02:20:00
2 1968-10-11 00:00:00 Temperatura 16.2 del 10-10-1968 21:00, Mayor que la Máxima 16.0 11-10-1968 00:00 16.2 -- 16.0 2013-05-11 02:20:00
2 1968-10-28 00:00:00 Temperatura 12.1 del 27-10-1968 21:00, Mayor que la Máxima 11.7 28-10-1968 00:00 12.1 -- 11.7 2013-05-11 02:20:00
2 1968-11-12 00:00:00 Temperatura 14.3 del 11-11-1968 18:00, Mayor que la Máxima 14.2 12-11-1968 00:00 14.3 -- 14.2 2013-05-11 02:20:00
2 1968-11-25 00:00:00 Temperatura 22.3 del 24-11-1968 21:00, Mayor que la Máxima 22.1 25-11-1968 00:00 22.3 -- 22.1 2013-05-11 02:20:00
2 1968-12-07 00:00:00 Temperatura 20.8 del 06-12-1968 18:00, Mayor que la Máxima 20.3 07-12-1968 00:00 20.8 -- 20.3 2013-05-11 02:20:00
2 1968-12-08 00:00:00 Temperatura 19.0 del 07-12-1968 21:00, Mayor que la Máxima 17.2 08-12-1968 00:00 19.0 -- 17.2 2013-05-11 02:20:00
2 1968-12-23 00:00:00 Temperatura 16.4 del 22-12-1968 21:00, Mayor que la Máxima 16.0 23-12-1968 00:00 16.4 -- 16.0 2013-05-11 02:20:00
2 1969-01-05 00:00:00 Temperatura 16.1 del 04-01-1969 18:00, Mayor que la Máxima 16.0 05-01-1969 00:00 16.1 -- 16.0 2013-05-11 02:20:00
2 1969-01-16 00:00:00 Temperatura 19.4 del 15-01-1969 20:00, Mayor que la Máxima 19.0 16-01-1969 00:00 19.4 -- 19.0 2013-05-11 02:20:00
2 1969-01-31 00:00:00 Temperatura 18.4 del 30-01-1969 18:00, Mayor que la Máxima 18.0 31-01-1969 00:00 18.4 -- 18.0 2013-05-11 02:20:00
2 1969-02-02 00:00:00 Temperatura 24.8 del 01-02-1969 18:00, Mayor que la Máxima 24.4 02-02-1969 00:00 24.8 -- 24.4 2013-05-11 02:20:00
2 1969-02-14 00:00:00 Temperatura 18.3 del 13-02-1969 14:00, Mayor que la Máxima 18.2 14-02-1969 00:00 18.3 -- 18.2 2013-05-11 02:20:00
2 1969-02-15 00:00:00 Temperatura 17.8 del 14-02-1969 17:00, Mayor que la Máxima 14.2 15-02-1969 00:00 17.8 -- 14.2 2013-05-11 02:20:00
2 1969-02-26 00:00:00 Temperatura 18.8 del 25-02-1969 16:00, Mayor que la Máxima 18.0 26-02-1969 00:00 18.8 -- 18.0 2013-05-11 02:20:00
2 1969-03-01 00:00:00 Temperatura 20.3 del 28-02-1969 19:00, Mayor que la Máxima 20.1 01-03-1969 00:00 20.3 -- 20.1 2013-05-11 02:20:00
2 1969-03-19 00:00:00 Temperatura 20.6 del 18-03-1969 20:00, Mayor que la Máxima 20.0 19-03-1969 00:00 20.6 -- 20.0 2013-05-11 02:20:00
2 1969-05-01 00:00:00 Temperatura 9.4 del 30-04-1969 17:00, Mayor que la Máxima 8.6 01-05-1969 00:00 9.4 -- 8.6 2013-05-11 02:20:00
2 1969-05-02 00:00:00 Temperatura 10.0 del 01-05-1969 15:00, Mayor que la Máxima 8.4 02-05-1969 00:00 10.0 -- 8.4 2013-05-11 02:20:00
2 1969-05-22 00:00:00 Temperatura 13.2 del 21-05-1969 20:00, Mayor que la Máxima 13.0 22-05-1969 00:00 13.2 -- 13.0 2013-05-11 02:20:00
2 1969-07-01 00:00:00 Temperatura 14.0 del 30-06-1969 19:00, Mayor que la Máxima 10.4 01-07-1969 00:00 14.0 -- 10.4 2013-05-11 02:20:00
2 1969-07-04 00:00:00 Temperatura 8.2 del 03-07-1969 17:00, Mayor que la Máxima 8.1 04-07-1969 00:00 8.2 -- 8.1 2013-05-11 02:20:00
2 1969-07-07 00:00:00 Temperatura 9.4 del 06-07-1969 19:00, Mayor que la Máxima 8.0 07-07-1969 00:00 9.4 -- 8.0 2013-05-11 02:20:00
2 1969-07-13 00:00:00 Temperatura 14.0 del 12-07-1969 16:00, Mayor que la Máxima 12.2 13-07-1969 00:00 14.0 -- 12.2 2013-05-11 02:20:00
2 1969-07-20 00:00:00 Temperatura 10.6 del 19-07-1969 19:00, Mayor que la Máxima 10.4 20-07-1969 00:00 10.6 -- 10.4 2013-05-11 02:20:00
2 1969-07-27 00:00:00 Temperatura 13.8 del 26-07-1969 18:00, Mayor que la Máxima 13.2 27-07-1969 00:00 13.8 -- 13.2 2013-05-11 02:20:00
2 1969-08-05 00:00:00 Temperatura 9.6 del 04-08-1969 17:00, Mayor que la Máxima 8.6 05-08-1969 00:00 9.6 -- 8.6 2013-05-11 02:20:00
2 1969-08-08 00:00:00 Temperatura 11.0 del 07-08-1969 18:00, Mayor que la Máxima 10.4 08-08-1969 00:00 11.0 -- 10.4 2013-05-11 02:20:00
2 1969-08-17 00:00:00 Temperatura 11.3 del 16-08-1969 18:00, Mayor que la Máxima 10.8 17-08-1969 00:00 11.3 -- 10.8 2013-05-11 02:20:00
2 1969-08-26 00:00:00 Temperatura 12.4 del 25-08-1969 21:00, Mayor que la Máxima 12.3 26-08-1969 00:00 12.4 -- 12.3 2013-05-11 02:20:00
2 1969-08-30 00:00:00 Temperatura 10.2 del 29-08-1969 21:00, Mayor que la Máxima 10.0 30-08-1969 00:00 10.2 -- 10.0 2013-05-11 02:20:00
2 1970-02-25 00:00:00 Temperatura 20.2 del 24-02-1970 19:00, Mayor que la Máxima 19.8 25-02-1970 00:00 20.2 -- 19.8 2013-05-11 02:20:00
2 1970-03-03 00:00:00 Temperatura 17.7 del 02-03-1970 17:00, Mayor que la Máxima 17.6 03-03-1970 00:00 17.7 -- 17.6 2013-05-11 02:20:00
2 1970-03-07 00:00:00 Temperatura 17.0 del 06-03-1970 18:00, Mayor que la Máxima 16.4 07-03-1970 00:00 17.0 -- 16.4 2013-05-11 02:20:00
2 1970-03-24 00:00:00 Temperatura 16.8 del 23-03-1970 18:00, Mayor que la Máxima 16.2 24-03-1970 00:00 16.8 -- 16.2 2013-05-11 02:20:00
2 1970-03-29 00:00:00 Temperatura 15.8 del 28-03-1970 14:00, Mayor que la Máxima 15.1 29-03-1970 00:00 15.8 -- 15.1 2013-05-11 02:20:00
2 1970-04-19 00:00:00 Temperatura 17.6 del 18-04-1970 18:00, Mayor que la Máxima 17.4 19-04-1970 00:00 17.6 -- 17.4 2013-05-11 02:20:00
2 1970-05-02 00:00:00 Temperatura 14.8 del 01-05-1970 14:00, Mayor que la Máxima 14.4 02-05-1970 00:00 14.8 -- 14.4 2013-05-11 02:20:00
2 1970-05-04 00:00:00 Temperatura 7.8 del 03-05-1970 16:00, Mayor que la Máxima 7.5 04-05-1970 00:00 7.8 -- 7.5 2013-05-11 02:20:00
2 1970-05-09 00:00:00 Temperatura 10.6 del 08-05-1970 13:00, Mayor que la Máxima 10.5 09-05-1970 00:00 10.6 -- 10.5 2013-05-11 02:20:00
2 1970-06-03 00:00:00 Temperatura 10.8 del 02-06-1970 17:00, Mayor que la Máxima 10.6 03-06-1970 00:00 10.8 -- 10.6 2013-05-11 02:20:00
2 1970-06-05 00:00:00 Temperatura 9.0 del 04-06-1970 16:00, Mayor que la Máxima 8.3 05-06-1970 00:00 9.0 -- 8.3 2013-05-11 02:20:00
2 1970-06-30 00:00:00 Temperatura 7.6 del 29-06-1970 20:00, Mayor que la Máxima 7.2 30-06-1970 00:00 7.6 -- 7.2 2013-05-11 02:20:00
2 1970-07-14 00:00:00 Temperatura 10.4 del 13-07-1970 19:00, Mayor que la Máxima 10.2 14-07-1970 00:00 10.4 -- 10.2 2013-05-11 02:20:00
2 1970-07-19 00:00:00 Temperatura 15.4 del 18-07-1970 16:00, Mayor que la Máxima 8.8 19-07-1970 00:00 15.4 -- 8.8 2013-05-11 02:20:00
2 1970-08-03 00:00:00 Temperatura 8.8 del 02-08-1970 20:00, Mayor que la Máxima 8.5 03-08-1970 00:00 8.8 -- 8.5 2013-05-11 02:20:00
2 1970-08-10 00:00:00 Temperatura 10.6 del 09-08-1970 17:00, Mayor que la Máxima 10.1 10-08-1970 00:00 10.6 -- 10.1 2013-05-11 02:20:00
2 1970-08-15 00:00:00 Temperatura 10.8 del 14-08-1970 20:00, Mayor que la Máxima 10.2 15-08-1970 00:00 10.8 -- 10.2 2013-05-11 02:20:00
2 1970-08-17 00:00:00 Temperatura 19.2 del 16-08-1970 22:00, Mayor que la Máxima 10.4 17-08-1970 00:00 19.2 -- 10.4 2013-05-11 02:20:00
2 1970-08-19 00:00:00 Temperatura 16.7 del 18-08-1970 19:00, Mayor que la Máxima 8.3 19-08-1970 00:00 16.7 -- 8.3 2013-05-11 02:20:00
2 1970-08-20 00:00:00 Temperatura 14.2 del 19-08-1970 16:00, Mayor que la Máxima 9.1 20-08-1970 00:00 14.2 -- 9.1 2013-05-11 02:20:00
2 1970-08-23 00:00:00 Temperatura 18.2 del 22-08-1970 22:00, Mayor que la Máxima 9.4 23-08-1970 00:00 18.2 -- 9.4 2013-05-11 02:20:00
2 1970-08-29 00:00:00 Temperatura 17.7 del 28-08-1970 16:00, Mayor que la Máxima 12.4 29-08-1970 00:00 17.7 -- 12.4 2013-05-11 02:20:00
2 1970-09-04 00:00:00 Temperatura 13.4 del 03-09-1970 19:00, Mayor que la Máxima 12.8 04-09-1970 00:00 13.4 -- 12.8 2013-05-11 02:20:00
2 1970-09-15 00:00:00 Temperatura 12.8 del 14-09-1970 16:00, Mayor que la Máxima 12.2 15-09-1970 00:00 12.8 -- 12.2 2013-05-11 02:20:00
2 1970-10-07 00:00:00 Temperatura 13.0 del 06-10-1970 19:00, Mayor que la Máxima 12.6 07-10-1970 00:00 13.0 -- 12.6 2013-05-11 02:20:00
2 1970-10-16 00:00:00 Temperatura 16.6 del 15-10-1970 19:00, Mayor que la Máxima 15.7 16-10-1970 00:00 16.6 -- 15.7 2013-05-11 02:20:00
2 1970-10-18 00:00:00 Temperatura 17.3 del 17-10-1970 19:00, Mayor que la Máxima 16.4 18-10-1970 00:00 17.3 -- 16.4 2013-05-11 02:20:00
2 1970-10-30 00:00:00 Temperatura 18.6 del 29-10-1970 20:00, Mayor que la Máxima 17.4 30-10-1970 00:00 18.6 -- 17.4 2013-05-11 02:20:00
2 1970-11-01 00:00:00 Temperatura 14.2 del 31-10-1970 17:00, Mayor que la Máxima 12.8 01-11-1970 00:00 14.2 -- 12.8 2013-05-11 02:20:00
2 1970-11-25 00:00:00 Temperatura 19.2 del 24-11-1970 22:00, Mayor que la Máxima 18.4 25-11-1970 00:00 19.2 -- 18.4 2013-05-11 02:20:00
2 1970-11-27 00:00:00 Temperatura 16.4 del 26-11-1970 16:00, Mayor que la Máxima 15.2 27-11-1970 00:00 16.4 -- 15.2 2013-05-11 02:20:00
2 1971-02-12 00:00:00 Temperatura 12.8 del 11-02-1971 15:00, Mayor que la Máxima 3.1 12-02-1971 00:00 12.8 -- 3.1 2013-05-11 02:20:00
2 1971-04-05 00:00:00 Temperatura 15.1 del 04-04-1971 17:00, Mayor que la Máxima 14.9 05-04-1971 00:00 15.1 -- 14.9 2013-05-11 02:20:00
2 1971-04-18 00:00:00 Temperatura 10.6 del 17-04-1971 18:00, Mayor que la Máxima 10.4 18-04-1971 00:00 10.6 -- 10.4 2013-05-11 02:20:00
2 1971-04-22 00:00:00 Temperatura 16.3 del 21-04-1971 19:00, Mayor que la Máxima 15.9 22-04-1971 00:00 16.3 -- 15.9 2013-05-11 02:20:00
2 1971-04-26 00:00:00 Temperatura 18.2 del 25-04-1971 19:00, Mayor que la Máxima 17.4 26-04-1971 00:00 18.2 -- 17.4 2013-05-11 02:20:00
2 1971-05-02 00:00:00 Temperatura 11.0 del 01-05-1971 17:00, Mayor que la Máxima 10.4 02-05-1971 00:00 11.0 -- 10.4 2013-05-11 02:20:00
2 1971-05-19 00:00:00 Temperatura 15.3 del 18-05-1971 20:00, Mayor que la Máxima 15.2 19-05-1971 00:00 15.3 -- 15.2 2013-05-11 02:20:00
2 1971-06-20 00:00:00 Temperatura 5.4 del 19-06-1971 21:00, Mayor que la Máxima 5.3 20-06-1971 00:00 5.4 -- 5.3 2013-05-11 02:20:00
2 1971-06-26 00:00:00 Temperatura 11.6 del 25-06-1971 18:00, Mayor que la Máxima 11.2 26-06-1971 00:00 11.6 -- 11.2 2013-05-11 02:20:00
2 1971-07-02 00:00:00 Temperatura 6.4 del 01-07-1971 14:00, Mayor que la Máxima 0.0 02-07-1971 00:00 6.4 -- 0.0 2013-05-11 02:20:00
2 1971-07-29 00:00:00 Temperatura 20.8 del 28-07-1971 21:00, Mayor que la Máxima 11.4 29-07-1971 00:00 20.8 -- 11.4 2013-05-11 02:21:00
2 1971-07-30 00:00:00 Temperatura 10.4 del 29-07-1971 18:00, Mayor que la Máxima 10.3 30-07-1971 00:00 10.4 -- 10.3 2013-05-11 02:21:00
2 1971-08-05 00:00:00 Temperatura 8.7 del 04-08-1971 19:00, Mayor que la Máxima 8.4 05-08-1971 00:00 8.7 -- 8.4 2013-05-11 02:21:00
2 1971-08-18 00:00:00 Temperatura 8.2 del 17-08-1971 13:00, Mayor que la Máxima 7.2 18-08-1971 00:00 8.2 -- 7.2 2013-05-11 02:21:00
2 1971-09-02 00:00:00 Temperatura 17.0 del 01-09-1971 16:00, Mayor que la Máxima 12.5 02-09-1971 00:00 17.0 -- 12.5 2013-05-11 02:21:00
2 1971-09-03 00:00:00 Temperatura 11.8 del 02-09-1971 18:00, Mayor que la Máxima 1.8 03-09-1971 00:00 11.8 -- 1.8 2013-05-11 02:21:00
2 1971-09-22 00:00:00 Temperatura 10.1 del 21-09-1971 19:00, Mayor que la Máxima 9.5 22-09-1971 00:00 10.1 -- 9.5 2013-05-11 02:21:00
2 1971-10-02 00:00:00 Temperatura 11.7 del 01-10-1971 20:00, Mayor que la Máxima 11.4 02-10-1971 00:00 11.7 -- 11.4 2013-05-11 02:21:00
2 1971-10-13 00:00:00 Temperatura 15.1 del 12-10-1971 17:00, Mayor que la Máxima 15.0 13-10-1971 00:00 15.1 -- 15.0 2013-05-11 02:21:00
2 1971-11-14 00:00:00 Temperatura 16.1 del 13-11-1971 15:00, Mayor que la Máxima 15.8 14-11-1971 00:00 16.1 -- 15.8 2013-05-11 02:21:00
2 1971-12-12 00:00:00 Temperatura 16.0 del 11-12-1971 19:00, Mayor que la Máxima 14.8 12-12-1971 00:00 16.0 -- 14.8 2013-05-11 02:21:00
2 1971-12-21 00:00:00 Temperatura 14.2 del 20-12-1971 22:00, Mayor que la Máxima 13.2 21-12-1971 00:00 14.2 -- 13.2 2013-05-11 02:21:00
2 1971-12-27 00:00:00 Temperatura 17.1 del 26-12-1971 21:00, Mayor que la Máxima 7.3 27-12-1971 00:00 17.1 -- 7.3 2013-05-11 02:21:00
2 1972-02-27 00:00:00 Temperatura 18.4 del 26-02-1972 23:00, Mayor que la Máxima 18.3 27-02-1972 00:00 18.4 -- 18.3 2013-05-11 02:21:00
2 1972-02-29 00:00:00 Temperatura 24.2 del 28-02-1972 21:00, Mayor que la Máxima 24.1 29-02-1972 00:00 24.2 -- 24.1 2013-05-11 02:21:00
2 1972-03-09 00:00:00 Temperatura 15.6 del 08-03-1972 21:00, Mayor que la Máxima 15.4 09-03-1972 00:00 15.6 -- 15.4 2013-05-11 02:21:00
2 1972-04-23 00:00:00 Temperatura 12.8 del 22-04-1972 15:00, Mayor que la Máxima 12.6 23-04-1972 00:00 12.8 -- 12.6 2013-05-11 02:21:00
2 1972-05-25 00:00:00 Temperatura 14.0 del 24-05-1972 17:00, Mayor que la Máxima 13.4 25-05-1972 00:00 14.0 -- 13.4 2013-05-11 02:21:00
2 1972-06-09 00:00:00 Temperatura 6.8 del 08-06-1972 21:00, Mayor que la Máxima 6.6 09-06-1972 00:00 6.8 -- 6.6 2013-05-11 02:21:00
2 1972-06-17 00:00:00 Temperatura 11.0 del 16-06-1972 19:00, Mayor que la Máxima 10.8 17-06-1972 00:00 11.0 -- 10.8 2013-05-11 02:21:00
2 1972-06-22 00:00:00 Temperatura 15.2 del 21-06-1972 17:00, Mayor que la Máxima 15.1 22-06-1972 00:00 15.2 -- 15.1 2013-05-11 02:21:00
2 1972-07-10 00:00:00 Temperatura 7.6 del 09-07-1972 21:00, Mayor que la Máxima 7.2 10-07-1972 00:00 7.6 -- 7.2 2013-05-11 02:21:00
2 1972-07-22 00:00:00 Temperatura 9.8 del 21-07-1972 20:00, Mayor que la Máxima 9.4 22-07-1972 00:00 9.8 -- 9.4 2013-05-11 02:21:00
2 1972-08-01 00:00:00 Temperatura 13.6 del 31-07-1972 16:00, Mayor que la Máxima 12.8 01-08-1972 00:00 13.6 -- 12.8 2013-05-11 02:21:00
2 1972-08-04 00:00:00 Temperatura 6.8 del 03-08-1972 21:00, Mayor que la Máxima 6.4 04-08-1972 00:00 6.8 -- 6.4 2013-05-11 02:21:00
2 1972-08-12 00:00:00 Temperatura 13.2 del 11-08-1972 20:00, Mayor que la Máxima 13.0 12-08-1972 00:00 13.2 -- 13.0 2013-05-11 02:21:00
2 1972-08-29 00:00:00 Temperatura 10.6 del 28-08-1972 21:00, Mayor que la Máxima 10.3 29-08-1972 00:00 10.6 -- 10.3 2013-05-11 02:21:00
2 1972-08-30 00:00:00 Temperatura 11.6 del 29-08-1972 17:00, Mayor que la Máxima 11.0 30-08-1972 00:00 11.6 -- 11.0 2013-05-11 02:21:00
2 1972-09-08 00:00:00 Temperatura 10.7 del 07-09-1972 22:00, Mayor que la Máxima 10.4 08-09-1972 00:00 10.7 -- 10.4 2013-05-11 02:21:00
2 1972-09-17 00:00:00 Temperatura 8.3 del 16-09-1972 22:00, Mayor que la Máxima 8.0 17-09-1972 00:00 8.3 -- 8.0 2013-05-11 02:21:00
2 1972-09-27 00:00:00 Temperatura 12.2 del 26-09-1972 17:00, Mayor que la Máxima 11.6 27-09-1972 00:00 12.2 -- 11.6 2013-05-11 02:21:00
2 1972-09-30 00:00:00 Temperatura 10.2 del 29-09-1972 19:00, Mayor que la Máxima 10.0 30-09-1972 00:00 10.2 -- 10.0 2013-05-11 02:21:00
2 1972-10-06 00:00:00 Temperatura 14.5 del 05-10-1972 22:00, Mayor que la Máxima 13.6 06-10-1972 00:00 14.5 -- 13.6 2013-05-11 02:21:00
2 1972-10-09 00:00:00 Temperatura 18.3 del 08-10-1972 22:00, Mayor que la Máxima 17.2 09-10-1972 00:00 18.3 -- 17.2 2013-05-11 02:21:00
2 1972-10-11 00:00:00 Temperatura 12.8 del 10-10-1972 17:00, Mayor que la Máxima 11.8 11-10-1972 00:00 12.8 -- 11.8 2013-05-11 02:21:00
2 1972-10-14 00:00:00 Temperatura 12.8 del 13-10-1972 19:00, Mayor que la Máxima 12.7 14-10-1972 00:00 12.8 -- 12.7 2013-05-11 02:21:00
2 1972-10-25 00:00:00 Temperatura 13.6 del 24-10-1972 15:00, Mayor que la Máxima 13.2 25-10-1972 00:00 13.6 -- 13.2 2013-05-11 02:21:00
2 1972-11-14 00:00:00 Temperatura 16.0 del 13-11-1972 18:00, Mayor que la Máxima 15.3 14-11-1972 00:00 16.0 -- 15.3 2013-05-11 02:21:00
2 1972-11-23 00:00:00 Temperatura 22.2 del 22-11-1972 22:00, Mayor que la Máxima 21.6 23-11-1972 00:00 22.2 -- 21.6 2013-05-11 02:21:00
2 1972-11-24 00:00:00 Temperatura 19.6 del 23-11-1972 20:00, Mayor que la Máxima 19.2 24-11-1972 00:00 19.6 -- 19.2 2013-05-11 02:21:00
2 1972-11-30 00:00:00 Temperatura 14.4 del 29-11-1972 21:00, Mayor que la Máxima 14.2 30-11-1972 00:00 14.4 -- 14.2 2013-05-11 02:21:00
2 1972-12-11 00:00:00 Temperatura 18.0 del 10-12-1972 21:00, Mayor que la Máxima 1.8 11-12-1972 00:00 18.0 -- 1.8 2013-05-11 02:21:00
2 1973-01-14 00:00:00 Temperatura 16.4 del 13-01-1973 22:00, Mayor que la Máxima 16.2 14-01-1973 00:00 16.4 -- 16.2 2013-05-11 02:21:00
2 1973-02-01 00:00:00 Temperatura 19.8 del 31-01-1973 19:00, Mayor que la Máxima 19.2 01-02-1973 00:00 19.8 -- 19.2 2013-05-11 02:21:00
2 1973-02-03 00:00:00 Temperatura 16.5 del 02-02-1973 19:00, Mayor que la Máxima 16.3 03-02-1973 00:00 16.5 -- 16.3 2013-05-11 02:21:00
2 1973-02-04 00:00:00 Temperatura 21.6 del 03-02-1973 22:00, Mayor que la Máxima 21.3 04-02-1973 00:00 21.6 -- 21.3 2013-05-11 02:21:00
2 1973-02-18 00:00:00 Temperatura 21.6 del 17-02-1973 21:00, Mayor que la Máxima 21.5 18-02-1973 00:00 21.6 -- 21.5 2013-05-11 02:21:00
2 1973-02-21 00:00:00 Temperatura 20.0 del 20-02-1973 18:00, Mayor que la Máxima 19.8 21-02-1973 00:00 20.0 -- 19.8 2013-05-11 02:21:00
2 1973-03-21 00:00:00 Temperatura 17.2 del 20-03-1973 17:00, Mayor que la Máxima 16.4 21-03-1973 00:00 17.2 -- 16.4 2013-05-11 02:21:00
2 1973-04-11 00:00:00 Temperatura 15.6 del 10-04-1973 14:00, Mayor que la Máxima 15.3 11-04-1973 00:00 15.6 -- 15.3 2013-05-11 02:21:00
2 1973-04-14 00:00:00 Temperatura 13.3 del 13-04-1973 20:00, Mayor que la Máxima 13.2 14-04-1973 00:00 13.3 -- 13.2 2013-05-11 02:21:00
2 1973-04-17 00:00:00 Temperatura 14.9 del 16-04-1973 16:00, Mayor que la Máxima 14.4 17-04-1973 00:00 14.9 -- 14.4 2013-05-11 02:21:00
2 1973-04-19 00:00:00 Temperatura 15.2 del 18-04-1973 22:00, Mayor que la Máxima 15.0 19-04-1973 00:00 15.2 -- 15.0 2013-05-11 02:21:00
2 1973-04-23 00:00:00 Temperatura 14.3 del 22-04-1973 19:00, Mayor que la Máxima 14.0 23-04-1973 00:00 14.3 -- 14.0 2013-05-11 02:21:00
2 1973-04-24 00:00:00 Temperatura 15.0 del 23-04-1973 19:00, Mayor que la Máxima 1.5 24-04-1973 00:00 15.0 -- 1.5 2013-05-11 02:21:00
2 1973-04-29 00:00:00 Temperatura 13.4 del 28-04-1973 17:00, Mayor que la Máxima 12.8 29-04-1973 00:00 13.4 -- 12.8 2013-05-11 02:21:00
2 1973-05-19 00:00:00 Temperatura 15.1 del 18-05-1973 16:00, Mayor que la Máxima 14.8 19-05-1973 00:00 15.1 -- 14.8 2013-05-11 02:21:00
2 1973-05-21 00:00:00 Temperatura 10.5 del 20-05-1973 17:00, Mayor que la Máxima 10.3 21-05-1973 00:00 10.5 -- 10.3 2013-05-11 02:21:00
2 1973-05-22 00:00:00 Temperatura 11.0 del 21-05-1973 21:00, Mayor que la Máxima 10.9 22-05-1973 00:00 11.0 -- 10.9 2013-05-11 02:21:00
2 1973-05-27 00:00:00 Temperatura 8.7 del 26-05-1973 16:00, Mayor que la Máxima 8.5 27-05-1973 00:00 8.7 -- 8.5 2013-05-11 02:21:00
2 1973-06-01 00:00:00 Temperatura 14.5 del 31-05-1973 19:00, Mayor que la Máxima 14.4 01-06-1973 00:00 14.5 -- 14.4 2013-05-11 02:21:00
2 1973-06-18 00:00:00 Temperatura 6.3 del 17-06-1973 17:00, Mayor que la Máxima 6.1 18-06-1973 00:00 6.3 -- 6.1 2013-05-11 02:21:00
2 1973-06-24 00:00:00 Temperatura 9.7 del 23-06-1973 20:00, Mayor que la Máxima 9.6 24-06-1973 00:00 9.7 -- 9.6 2013-05-11 02:21:00
2 1973-07-02 00:00:00 Temperatura 9.3 del 01-07-1973 20:00, Mayor que la Máxima 9.2 02-07-1973 00:00 9.3 -- 9.2 2013-05-11 02:21:00
2 1973-07-14 00:00:00 Temperatura 8.5 del 13-07-1973 20:00, Mayor que la Máxima 8.4 14-07-1973 00:00 8.5 -- 8.4 2013-05-11 02:21:00
2 1973-07-28 00:00:00 Temperatura 12.7 del 27-07-1973 13:00, Mayor que la Máxima 12.6 28-07-1973 00:00 12.7 -- 12.6 2013-05-11 02:21:00
2 1973-08-12 00:00:00 Temperatura 7.4 del 11-08-1973 20:00, Mayor que la Máxima 7.3 12-08-1973 00:00 7.4 -- 7.3 2013-05-11 02:21:00
2 1973-08-14 00:00:00 Temperatura 11.0 del 13-08-1973 22:00, Mayor que la Máxima 10.7 14-08-1973 00:00 11.0 -- 10.7 2013-05-11 02:21:00
2 1973-08-17 00:00:00 Temperatura 10.4 del 16-08-1973 17:00, Mayor que la Máxima 10.2 17-08-1973 00:00 10.4 -- 10.2 2013-05-11 02:21:00
2 1973-09-04 00:00:00 Temperatura 9.7 del 03-09-1973 16:00, Mayor que la Máxima 9.6 04-09-1973 00:00 9.7 -- 9.6 2013-05-11 02:21:00
2 1973-09-21 00:00:00 Temperatura 13.4 del 20-09-1973 18:00, Mayor que la Máxima 1.4 21-09-1973 00:00 13.4 -- 1.4 2013-05-11 02:21:00
2 1973-10-03 00:00:00 Temperatura 14.8 del 02-10-1973 20:00, Mayor que la Máxima 14.4 03-10-1973 00:00 14.8 -- 14.4 2013-05-11 02:21:00
2 1973-10-10 00:00:00 Temperatura 11.1 del 09-10-1973 16:00, Mayor que la Máxima 10.8 10-10-1973 00:00 11.1 -- 10.8 2013-05-11 02:21:00
2 1973-11-18 00:00:00 Temperatura 14.7 del 17-11-1973 22:00, Mayor que la Máxima 14.6 18-11-1973 00:00 14.7 -- 14.6 2013-05-11 02:21:00
2 1974-02-21 00:00:00 Temperatura 20.6 del 20-02-1974 19:00, Mayor que la Máxima 19.6 21-02-1974 00:00 20.6 -- 19.6 2013-05-11 02:21:00
2 1974-02-23 00:00:00 Temperatura 15.3 del 22-02-1974 14:00, Mayor que la Máxima 15.2 23-02-1974 00:00 15.3 -- 15.2 2013-05-11 02:21:00
2 1974-05-03 00:00:00 Temperatura 14.1 del 02-05-1974 19:00, Mayor que la Máxima 14.0 03-05-1974 00:00 14.1 -- 14.0 2013-05-11 02:21:00
2 1974-05-29 00:00:00 Temperatura 16.0 del 28-05-1974 16:00, Mayor que la Máxima 12.7 29-05-1974 00:00 16.0 -- 12.7 2013-05-11 02:21:00
2 1974-06-15 00:00:00 Temperatura 10.1 del 14-06-1974 17:00, Mayor que la Máxima 10.0 15-06-1974 00:00 10.1 -- 10.0 2013-05-11 02:21:00
2 1974-07-01 00:00:00 Temperatura 6.9 del 30-06-1974 17:00, Mayor que la Máxima 6.8 01-07-1974 00:00 6.9 -- 6.8 2013-05-11 02:21:00
2 1974-07-02 00:00:00 Temperatura 11.6 del 01-07-1974 20:00, Mayor que la Máxima 10.6 02-07-1974 00:00 11.6 -- 10.6 2013-05-11 02:21:00
2 1974-07-09 00:00:00 Temperatura 12.1 del 08-07-1974 17:00, Mayor que la Máxima 12.0 09-07-1974 00:00 12.1 -- 12.0 2013-05-11 02:21:00
2 1974-07-29 00:00:00 Temperatura 9.1 del 28-07-1974 20:00, Mayor que la Máxima 9.0 29-07-1974 00:00 9.1 -- 9.0 2013-05-11 02:21:00
2 1974-07-31 00:00:00 Temperatura 12.0 del 30-07-1974 22:00, Mayor que la Máxima 11.8 31-07-1974 00:00 12.0 -- 11.8 2013-05-11 02:21:00
2 1974-08-05 00:00:00 Temperatura 10.2 del 04-08-1974 14:00, Mayor que la Máxima 10.0 05-08-1974 00:00 10.2 -- 10.0 2013-05-11 02:21:00
2 1974-08-10 00:00:00 Temperatura 14.1 del 09-08-1974 19:00, Mayor que la Máxima 13.8 10-08-1974 00:00 14.1 -- 13.8 2013-05-11 02:21:00
2 1974-08-28 00:00:00 Temperatura 8.7 del 27-08-1974 16:00, Mayor que la Máxima 8.6 28-08-1974 00:00 8.7 -- 8.6 2013-05-11 02:21:00
2 1974-09-04 00:00:00 Temperatura 12.5 del 03-09-1974 20:00, Mayor que la Máxima 12.4 04-09-1974 00:00 12.5 -- 12.4 2013-05-11 02:21:00
2 1974-09-11 00:00:00 Temperatura 12.0 del 10-09-1974 17:00, Mayor que la Máxima 1.2 11-09-1974 00:00 12.0 -- 1.2 2013-05-11 02:21:00
2 1974-10-30 00:00:00 Temperatura 18.8 del 29-10-1974 16:00, Mayor que la Máxima 15.7 30-10-1974 00:00 18.8 -- 15.7 2013-05-11 02:22:00
2 1974-11-04 00:00:00 Temperatura 18.0 del 03-11-1974 17:00, Mayor que la Máxima 14.2 04-11-1974 00:00 18.0 -- 14.2 2013-05-11 02:22:00
2 1974-11-18 00:00:00 Temperatura 11.3 del 17-11-1974 15:00, Mayor que la Máxima 1.2 18-11-1974 00:00 11.3 -- 1.2 2013-05-11 02:22:00
2 1974-12-01 00:00:00 Temperatura 13.1 del 30-11-1974 21:00, Mayor que la Máxima 12.6 01-12-1974 00:00 13.1 -- 12.6 2013-05-11 02:22:00
2 1974-12-14 00:00:00 Temperatura 16.8 del 13-12-1974 15:00, Mayor que la Máxima 16.5 14-12-1974 00:00 16.8 -- 16.5 2013-05-11 02:22:00
2 1975-01-13 00:00:00 Temperatura 16.8 del 12-01-1975 23:00, Mayor que la Máxima 15.0 13-01-1975 00:00 16.8 -- 15.0 2013-05-11 02:22:00
2 1975-01-28 00:00:00 Temperatura 32.6 del 27-01-1975 23:00, Mayor que la Máxima 0.0 28-01-1975 00:00 32.6 -- 0.0 2013-05-11 02:22:00
2 1975-04-11 00:00:00 Temperatura 9.2 del 10-04-1975 21:00, Mayor que la Máxima 9.0 11-04-1975 00:00 9.2 -- 9.0 2013-05-11 02:22:00
2 1975-04-18 00:00:00 Temperatura 13.2 del 17-04-1975 17:00, Mayor que la Máxima 12.8 18-04-1975 00:00 13.2 -- 12.8 2013-05-11 02:22:00
2 1975-05-06 00:00:00 Temperatura 13.1 del 05-05-1975 17:00, Mayor que la Máxima 12.5 06-05-1975 00:00 13.1 -- 12.5 2013-05-11 02:22:00
2 1975-05-08 00:00:00 Temperatura 13.3 del 07-05-1975 20:00, Mayor que la Máxima 13.2 08-05-1975 00:00 13.3 -- 13.2 2013-05-11 02:22:00
2 1975-05-09 00:00:00 Temperatura 12.1 del 08-05-1975 20:00, Mayor que la Máxima 11.6 09-05-1975 00:00 12.1 -- 11.6 2013-05-11 02:22:00
2 1975-05-28 00:00:00 Temperatura 10.0 del 27-05-1975 18:00, Mayor que la Máxima 1.0 28-05-1975 00:00 10.0 -- 1.0 2013-05-11 02:22:00
2 1975-06-13 00:00:00 Temperatura 10.6 del 12-06-1975 21:00, Mayor que la Máxima 10.4 13-06-1975 00:00 10.6 -- 10.4 2013-05-11 02:22:00
2 1975-06-14 00:00:00 Temperatura 12.4 del 13-06-1975 17:00, Mayor que la Máxima 12.3 14-06-1975 00:00 12.4 -- 12.3 2013-05-11 02:22:00
2 1975-06-15 00:00:00 Temperatura 12.5 del 14-06-1975 13:00, Mayor que la Máxima 12.2 15-06-1975 00:00 12.5 -- 12.2 2013-05-11 02:22:00
2 1975-06-19 00:00:00 Temperatura 14.0 del 18-06-1975 21:00, Mayor que la Máxima 13.8 19-06-1975 00:00 14.0 -- 13.8 2013-05-11 02:22:00
2 1975-06-26 00:00:00 Temperatura 11.2 del 25-06-1975 18:00, Mayor que la Máxima 10.9 26-06-1975 00:00 11.2 -- 10.9 2013-05-11 02:22:00
2 1975-06-29 00:00:00 Temperatura 12.7 del 28-06-1975 19:00, Mayor que la Máxima 12.6 29-06-1975 00:00 12.7 -- 12.6 2013-05-11 02:22:00
2 1975-07-03 00:00:00 Temperatura 12.4 del 02-07-1975 19:00, Mayor que la Máxima 11.8 03-07-1975 00:00 12.4 -- 11.8 2013-05-11 02:22:00
2 1975-07-10 00:00:00 Temperatura 9.2 del 09-07-1975 14:00, Mayor que la Máxima 8.0 10-07-1975 00:00 9.2 -- 8.0 2013-05-11 02:22:00
2 1975-08-06 00:00:00 Temperatura 5.5 del 05-08-1975 22:00, Mayor que la Máxima 5.2 06-08-1975 00:00 5.5 -- 5.2 2013-05-11 02:22:00
2 1975-08-13 00:00:00 Temperatura 9.8 del 12-08-1975 19:00, Mayor que la Máxima 9.6 13-08-1975 00:00 9.8 -- 9.6 2013-05-11 02:22:00
2 1975-08-17 00:00:00 Temperatura 13.8 del 16-08-1975 20:00, Mayor que la Máxima 13.6 17-08-1975 00:00 13.8 -- 13.6 2013-05-11 02:22:00
2 1975-08-19 00:00:00 Temperatura 10.5 del 18-08-1975 16:00, Mayor que la Máxima 10.4 19-08-1975 00:00 10.5 -- 10.4 2013-05-11 02:22:00
2 1975-08-29 00:00:00 Temperatura 10.2 del 28-08-1975 19:00, Mayor que la Máxima 9.8 29-08-1975 00:00 10.2 -- 9.8 2013-05-11 02:22:00
2 1975-09-03 00:00:00 Temperatura 13.3 del 02-09-1975 19:00, Mayor que la Máxima 13.2 03-09-1975 00:00 13.3 -- 13.2 2013-05-11 02:22:00
2 1975-09-29 00:00:00 Temperatura 12.9 del 28-09-1975 18:00, Mayor que la Máxima 12.4 29-09-1975 00:00 12.9 -- 12.4 2013-05-11 02:22:00
2 1976-01-15 00:00:00 Temperatura 17.9 del 14-01-1976 18:00, Mayor que la Máxima 15.2 15-01-1976 00:00 17.9 -- 15.2 2013-05-11 02:22:00
2 1976-01-31 00:00:00 Temperatura 16.3 del 30-01-1976 15:00, Mayor que la Máxima 16.2 31-01-1976 00:00 16.3 -- 16.2 2013-05-11 02:22:00
2 1976-07-12 00:00:00 Temperatura 8.6 del 11-07-1976 20:00, Mayor que la Máxima 8.5 12-07-1976 00:00 8.6 -- 8.5 2013-05-11 02:22:00
2 1976-12-02 00:00:00 Temperatura 19.4 del 01-12-1976 19:00, Mayor que la Máxima 17.4 02-12-1976 00:00 19.4 -- 17.4 2013-05-11 02:22:00
2 1976-12-11 00:00:00 Temperatura 19.2 del 10-12-1976 19:00, Mayor que la Máxima 19.0 11-12-1976 00:00 19.2 -- 19.0 2013-05-11 02:22:00
2 1977-04-07 00:00:00 Temperatura 14.5 del 06-04-1977 17:00, Mayor que la Máxima 14.4 07-04-1977 00:00 14.5 -- 14.4 2013-05-11 02:22:00
2 1977-05-06 00:00:00 Temperatura 12.8 del 05-05-1977 16:00, Mayor que la Máxima 9.8 06-05-1977 00:00 12.8 -- 9.8 2013-05-11 02:22:00
2 1977-05-27 00:00:00 Temperatura 16.3 del 26-05-1977 17:00, Mayor que la Máxima 1.2 27-05-1977 00:00 16.3 -- 1.2 2013-05-11 02:22:00
2 1977-09-13 00:00:00 Temperatura 11.7 del 12-09-1977 17:00, Mayor que la Máxima 11.3 13-09-1977 00:00 11.7 -- 11.3 2013-05-11 02:22:00
2 1977-11-15 00:00:00 Temperatura 16.5 del 14-11-1977 13:00, Mayor que la Máxima 16.4 15-11-1977 00:00 16.5 -- 16.4 2013-05-11 02:22:00
2 1979-03-21 00:00:00 Temperatura 23.6 del 20-03-1979 20:00, Mayor que la Máxima 22.9 21-03-1979 00:00 23.6 -- 22.9 2013-05-11 02:23:00
2 1979-03-29 00:00:00 Temperatura 14.3 del 28-03-1979 21:00, Mayor que la Máxima 14.1 29-03-1979 00:00 14.3 -- 14.1 2013-05-11 02:23:00
2 1979-05-15 00:00:00 Temperatura 12.6 del 14-05-1979 16:00, Mayor que la Máxima 12.5 15-05-1979 00:00 12.6 -- 12.5 2013-05-11 02:23:00
2 1979-05-20 00:00:00 Temperatura 16.2 del 19-05-1979 21:00, Mayor que la Máxima 16.0 20-05-1979 00:00 16.2 -- 16.0 2013-05-11 02:23:00
2 1979-06-09 00:00:00 Temperatura 9.2 del 08-06-1979 19:00, Mayor que la Máxima 8.5 09-06-1979 00:00 9.2 -- 8.5 2013-05-11 02:23:00
2 1979-06-18 00:00:00 Temperatura 13.3 del 17-06-1979 22:00, Mayor que la Máxima 13.2 18-06-1979 00:00 13.3 -- 13.2 2013-05-11 02:23:00
2 1979-07-21 00:00:00 Temperatura 10.6 del 20-07-1979 13:00, Mayor que la Máxima 10.4 21-07-1979 00:00 10.6 -- 10.4 2013-05-11 02:23:00
2 1979-08-19 00:00:00 Temperatura 14.6 del 18-08-1979 15:00, Mayor que la Máxima 14.4 19-08-1979 00:00 14.6 -- 14.4 2013-05-11 02:23:00
2 1979-08-30 00:00:00 Temperatura 14.2 del 29-08-1979 20:00, Mayor que la Máxima 13.7 30-08-1979 00:00 14.2 -- 13.7 2013-05-11 02:23:00
2 1979-11-12 00:00:00 Temperatura 11.7 del 11-11-1979 18:00, Mayor que la Máxima 11.6 12-11-1979 00:00 11.7 -- 11.6 2013-05-11 02:23:00
2 1979-11-30 00:00:00 Temperatura 18.4 del 29-11-1979 18:00, Mayor que la Máxima 13.6 30-11-1979 00:00 18.4 -- 13.6 2013-05-11 02:23:00
2 1979-12-02 00:00:00 Temperatura 20.0 del 01-12-1979 23:00, Mayor que la Máxima 19.8 02-12-1979 00:00 20.0 -- 19.8 2013-05-11 02:23:00
2 1979-12-11 00:00:00 Temperatura 18.8 del 10-12-1979 18:00, Mayor que la Máxima 18.6 11-12-1979 00:00 18.8 -- 18.6 2013-05-11 02:23:00
2 1979-12-20 00:00:00 Temperatura 18.0 del 19-12-1979 20:00, Mayor que la Máxima 17.9 20-12-1979 00:00 18.0 -- 17.9 2013-05-11 02:23:00
2 1979-12-29 00:00:00 Temperatura 18.7 del 28-12-1979 19:00, Mayor que la Máxima 18.6 29-12-1979 00:00 18.7 -- 18.6 2013-05-11 02:23:00
2 1980-01-01 00:00:00 Temperatura 23.6 del 31-12-1979 17:00, Mayor que la Máxima 22.8 01-01-1980 00:00 23.6 -- 22.8 2013-05-11 02:23:00
2 1980-01-10 00:00:00 Temperatura 22.0 del 09-01-1980 17:00, Mayor que la Máxima 21.0 10-01-1980 00:00 22.0 -- 21.0 2013-05-11 02:23:00
2 1980-02-10 00:00:00 Temperatura 16.6 del 09-02-1980 20:00, Mayor que la Máxima 16.2 10-02-1980 00:00 16.6 -- 16.2 2013-05-11 02:23:00
2 1980-03-20 00:00:00 Temperatura 19.6 del 19-03-1980 19:00, Mayor que la Máxima 19.4 20-03-1980 00:00 19.6 -- 19.4 2013-05-11 02:23:00
2 1980-04-21 00:00:00 Temperatura 14.8 del 20-04-1980 19:00, Mayor que la Máxima 14.6 21-04-1980 00:00 14.8 -- 14.6 2013-05-11 02:23:00
2 1980-05-04 00:00:00 Temperatura 16.7 del 03-05-1980 23:00, Mayor que la Máxima 13.0 04-05-1980 00:00 16.7 -- 13.0 2013-05-11 02:23:00
2 1980-05-09 00:00:00 Temperatura 11.1 del 08-05-1980 20:00, Mayor que la Máxima 11.0 09-05-1980 00:00 11.1 -- 11.0 2013-05-11 02:23:00
2 1980-05-13 00:00:00 Temperatura 9.5 del 12-05-1980 20:00, Mayor que la Máxima 9.2 13-05-1980 00:00 9.5 -- 9.2 2013-05-11 02:23:00
2 1980-05-24 00:00:00 Temperatura 11.9 del 23-05-1980 17:00, Mayor que la Máxima 11.8 24-05-1980 00:00 11.9 -- 11.8 2013-05-11 02:23:00
2 1980-06-01 00:00:00 Temperatura 10.6 del 31-05-1980 19:00, Mayor que la Máxima 10.4 01-06-1980 00:00 10.6 -- 10.4 2013-05-11 02:23:00
2 1980-06-21 00:00:00 Temperatura 14.8 del 20-06-1980 19:00, Mayor que la Máxima 14.7 21-06-1980 00:00 14.8 -- 14.7 2013-05-11 02:23:00
2 1980-06-25 00:00:00 Temperatura 8.9 del 24-06-1980 17:00, Mayor que la Máxima 8.6 25-06-1980 00:00 8.9 -- 8.6 2013-05-11 02:23:00
2 1954-02-08 12:00:00 Temperatura 1.7 del 08-02-1954 10:00, Menor que la Mínima 4.8 08-02-1954 12:00 1.7 -- 4.8 2013-04-03 14:00:00
2 1954-04-10 12:00:00 Temperatura 4.1 del 10-04-1954 10:00, Menor que la Mínima 4.5 10-04-1954 12:00 4.1 -- 4.5 2013-04-10 20:04:00
2 1954-04-16 12:00:00 Temperatura 5.1 del 16-04-1954 10:00, Menor que la Mínima 5.2 16-04-1954 12:00 5.1 -- 5.2 2013-04-11 14:47:00
2 1954-07-24 12:00:00 Temperatura -1.1 del 24-07-1954 10:00, Menor que la Mínima -0.5 24-07-1954 12:00 -1.1 -- -0.5 2013-04-23 19:54:00
2 1954-08-24 12:00:00 Temperatura -1.0 del 24-08-1954 10:00, Menor que la Mínima 3.8 24-08-1954 12:00 -1.0 -- 3.8 2013-04-25 20:16:00
2 1954-08-30 12:00:00 Temperatura 5.5 del 30-08-1954 12:00, Menor que la Mínima 7.9 30-08-1954 12:00 5.5 -- 7.9 2013-04-26 18:18:00
2 1954-11-06 12:00:00 Temperatura 8.0 del 06-11-1954 10:00, Menor que la Mínima 9.0 06-11-1954 12:00 8.0 -- 9.0 2013-05-06 18:41:00
2 1955-02-21 12:00:00 Temperatura 8.6 del 21-02-1955 12:00, Menor que la Mínima 10.5 21-02-1955 12:00 8.6 -- 10.5 2013-05-11 02:26:00
2 1957-05-18 12:00:00 Temperatura 0.5 del 18-05-1957 12:00, Menor que la Mínima 5.5 18-05-1957 12:00 0.5 -- 5.5 2013-05-11 02:26:00
2 1957-07-25 12:00:00 Temperatura 0.5 del 25-07-1957 12:00, Menor que la Mínima 0.6 25-07-1957 12:00 0.5 -- 0.6 2013-05-11 02:26:00
2 1957-12-19 12:00:00 Temperatura 8.5 del 19-12-1957 12:00, Menor que la Mínima 9.5 19-12-1957 12:00 8.5 -- 9.5 2013-05-11 02:26:00
2 1961-04-02 12:00:00 Temperatura 6.0 del 02-04-1961 09:00, Menor que la Mínima 6.2 02-04-1961 12:00 6.0 -- 6.2 2013-05-11 02:27:00
2 1961-04-04 12:00:00 Temperatura 5.0 del 04-04-1961 12:00, Menor que la Mínima 5.2 04-04-1961 12:00 5.0 -- 5.2 2013-05-11 02:27:00
2 1961-04-10 12:00:00 Temperatura 0.0 del 10-04-1961 09:00, Menor que la Mínima 5.4 10-04-1961 12:00 0.0 -- 5.4 2013-05-11 02:27:00
2 1961-05-28 12:00:00 Temperatura 5.0 del 28-05-1961 09:00, Menor que la Mínima 5.2 28-05-1961 12:00 5.0 -- 5.2 2013-05-11 02:27:00
2 1961-05-30 12:00:00 Temperatura 0.2 del 30-05-1961 09:00, Menor que la Mínima 5.1 30-05-1961 12:00 0.2 -- 5.1 2013-05-11 02:27:00
2 1961-06-13 12:00:00 Temperatura -2.0 del 13-06-1961 09:00, Menor que la Mínima 5.3 13-06-1961 12:00 -2.0 -- 5.3 2013-05-11 02:27:00
2 1961-07-03 12:00:00 Temperatura 4.5 del 03-07-1961 09:00, Menor que la Mínima 5.2 03-07-1961 12:00 4.5 -- 5.2 2013-05-11 02:28:00
2 1961-07-08 12:00:00 Temperatura 4.0 del 08-07-1961 09:00, Menor que la Mínima 4.1 08-07-1961 12:00 4.0 -- 4.1 2013-05-11 02:28:00
2 1961-09-14 12:00:00 Temperatura 2.0 del 14-09-1961 12:00, Menor que la Mínima 2.1 14-09-1961 12:00 2.0 -- 2.1 2013-05-11 02:28:00
2 1962-06-08 12:00:00 Temperatura 6.0 del 08-06-1962 12:00, Menor que la Mínima 8.0 08-06-1962 12:00 6.0 -- 8.0 2013-05-11 02:28:00
2 1962-06-14 12:00:00 Temperatura 6.0 del 14-06-1962 12:00, Menor que la Mínima 6.1 14-06-1962 12:00 6.0 -- 6.1 2013-05-11 02:28:00
2 1962-10-19 12:00:00 Temperatura 8.0 del 19-10-1962 12:00, Menor que la Mínima 8.3 19-10-1962 12:00 8.0 -- 8.3 2013-05-11 02:28:00
2 1962-12-14 12:00:00 Temperatura 2.0 del 14-12-1962 12:00, Menor que la Mínima 11.0 14-12-1962 12:00 2.0 -- 11.0 2013-05-11 02:28:00
2 1962-12-28 12:00:00 Temperatura 10.5 del 28-12-1962 12:00, Menor que la Mínima 11.0 28-12-1962 12:00 10.5 -- 11.0 2013-05-11 02:28:00
2 1963-08-04 12:00:00 Temperatura 0.7 del 04-08-1963 12:00, Menor que la Mínima 1.9 04-08-1963 12:00 0.7 -- 1.9 2013-05-11 02:28:00
2 1963-10-07 12:00:00 Temperatura 1.0 del 07-10-1963 12:00, Menor que la Mínima 6.0 07-10-1963 12:00 1.0 -- 6.0 2013-05-11 02:28:00
2 1964-07-31 12:00:00 Temperatura 0.3 del 31-07-1964 12:00, Menor que la Mínima 0.5 31-07-1964 12:00 0.3 -- 0.5 2013-05-11 02:28:00
2 1965-09-06 12:00:00 Temperatura 1.0 del 06-09-1965 12:00, Menor que la Mínima 5.2 06-09-1965 12:00 1.0 -- 5.2 2013-05-11 02:29:00
2 1967-02-13 12:00:00 Temperatura 9.4 del 13-02-1967 12:00, Menor que la Mínima 9.6 13-02-1967 12:00 9.4 -- 9.6 2013-05-11 02:29:00
2 1967-02-14 12:00:00 Temperatura 10.6 del 14-02-1967 12:00, Menor que la Mínima 11.0 14-02-1967 12:00 10.6 -- 11.0 2013-05-11 02:29:00
2 1967-06-14 12:00:00 Temperatura -3.4 del 14-06-1967 12:00, Menor que la Mínima 3.4 14-06-1967 12:00 -3.4 -- 3.4 2013-05-11 02:29:00
2 1968-02-28 12:00:00 Temperatura 5.4 del 28-02-1968 09:00, Menor que la Mínima 6.1 28-02-1968 12:00 5.4 -- 6.1 2013-05-11 02:29:00
2 1968-03-24 12:00:00 Temperatura 5.8 del 24-03-1968 09:00, Menor que la Mínima 6.0 24-03-1968 12:00 5.8 -- 6.0 2013-05-11 02:29:00
2 1968-05-23 12:00:00 Temperatura 3.0 del 23-05-1968 09:00, Menor que la Mínima 9.0 23-05-1968 12:00 3.0 -- 9.0 2013-05-11 02:29:00
2 1968-06-22 12:00:00 Temperatura 1.0 del 22-06-1968 09:00, Menor que la Mínima 9.0 22-06-1968 12:00 1.0 -- 9.0 2013-05-11 02:29:00
2 1968-07-06 12:00:00 Temperatura 0.5 del 06-07-1968 09:00, Menor que la Mínima 8.2 06-07-1968 12:00 0.5 -- 8.2 2013-05-11 02:29:00
2 1968-09-27 12:00:00 Temperatura 8.6 del 27-09-1968 09:00, Menor que la Mínima 9.0 27-09-1968 12:00 8.6 -- 9.0 2013-05-11 02:30:00
2 1968-10-31 12:00:00 Temperatura 6.1 del 31-10-1968 09:00, Menor que la Mínima 7.6 31-10-1968 12:00 6.1 -- 7.6 2013-05-11 02:30:00
2 1968-11-14 12:00:00 Temperatura 7.7 del 14-11-1968 09:00, Menor que la Mínima 8.3 14-11-1968 12:00 7.7 -- 8.3 2013-05-11 02:30:00
2 1968-11-20 12:00:00 Temperatura 9.5 del 20-11-1968 09:00, Menor que la Mínima 10.0 20-11-1968 12:00 9.5 -- 10.0 2013-05-11 02:30:00
2 1968-11-24 12:00:00 Temperatura 10.6 del 24-11-1968 09:00, Menor que la Mínima 10.9 24-11-1968 12:00 10.6 -- 10.9 2013-05-11 02:30:00
2 1968-12-11 12:00:00 Temperatura 0.9 del 11-12-1968 12:00, Menor que la Mínima 7.0 11-12-1968 12:00 0.9 -- 7.0 2013-05-11 02:30:00
2 1969-01-06 12:00:00 Temperatura 10.8 del 06-01-1969 09:00, Menor que la Mínima 11.0 06-01-1969 12:00 10.8 -- 11.0 2013-05-11 02:30:00
2 1969-01-18 12:00:00 Temperatura 7.6 del 18-01-1969 09:00, Menor que la Mínima 7.8 18-01-1969 12:00 7.6 -- 7.8 2013-05-11 02:30:00
2 1969-02-02 12:00:00 Temperatura 10.4 del 02-02-1969 09:00, Menor que la Mínima 12.2 02-02-1969 12:00 10.4 -- 12.2 2013-05-11 02:30:00
2 1969-02-08 12:00:00 Temperatura 11.6 del 08-02-1969 09:00, Menor que la Mínima 12.0 08-02-1969 12:00 11.6 -- 12.0 2013-05-11 02:30:00
2 1969-03-25 12:00:00 Temperatura 4.6 del 25-03-1969 09:00, Menor que la Mínima 4.8 25-03-1969 12:00 4.6 -- 4.8 2013-05-11 02:30:00
2 1969-03-28 12:00:00 Temperatura 4.9 del 28-03-1969 09:00, Menor que la Mínima 5.0 28-03-1969 12:00 4.9 -- 5.0 2013-05-11 02:30:00
2 1969-04-03 12:00:00 Temperatura 5.2 del 03-04-1969 10:00, Menor que la Mínima 5.3 03-04-1969 12:00 5.2 -- 5.3 2013-05-11 02:30:00
2 1969-04-30 12:00:00 Temperatura 5.4 del 30-04-1969 10:00, Menor que la Mínima 6.3 30-04-1969 12:00 5.4 -- 6.3 2013-05-11 02:30:00
2 1969-05-28 12:00:00 Temperatura 7.2 del 28-05-1969 09:00, Menor que la Mínima 7.8 28-05-1969 12:00 7.2 -- 7.8 2013-05-11 02:30:00
2 1969-06-03 12:00:00 Temperatura 6.8 del 03-06-1969 11:00, Menor que la Mínima 7.0 03-06-1969 12:00 6.8 -- 7.0 2013-05-11 02:30:00
2 1969-06-05 12:00:00 Temperatura 7.0 del 05-06-1969 11:00, Menor que la Mínima 8.3 05-06-1969 12:00 7.0 -- 8.3 2013-05-11 02:30:00
2 1969-08-10 12:00:00 Temperatura 6.4 del 10-08-1969 09:00, Menor que la Mínima 6.8 10-08-1969 12:00 6.4 -- 6.8 2013-05-11 02:30:00
2 1969-08-12 12:00:00 Temperatura 4.8 del 12-08-1969 09:00, Menor que la Mínima 7.2 12-08-1969 12:00 4.8 -- 7.2 2013-05-11 02:30:00
2 1970-01-06 12:00:00 Temperatura 10.3 del 06-01-1970 11:00, Menor que la Mínima 10.4 06-01-1970 12:00 10.3 -- 10.4 2013-05-11 02:30:00
2 1970-03-20 12:00:00 Temperatura 10.5 del 20-03-1970 11:00, Menor que la Mínima 11.2 20-03-1970 12:00 10.5 -- 11.2 2013-05-11 02:30:00
2 1970-04-01 12:00:00 Temperatura 6.3 del 01-04-1970 06:00, Menor que la Mínima 6.4 01-04-1970 12:00 6.3 -- 6.4 2013-05-11 02:30:00
2 1970-04-09 12:00:00 Temperatura 2.8 del 09-04-1970 11:00, Menor que la Mínima 3.2 09-04-1970 12:00 2.8 -- 3.2 2013-05-11 02:30:00
2 1970-04-18 12:00:00 Temperatura 10.6 del 18-04-1970 11:00, Menor que la Mínima 13.2 18-04-1970 12:00 10.6 -- 13.2 2013-05-11 02:30:00
2 1970-04-19 12:00:00 Temperatura 10.6 del 19-04-1970 11:00, Menor que la Mínima 10.8 19-04-1970 12:00 10.6 -- 10.8 2013-05-11 02:30:00
2 1970-05-08 12:00:00 Temperatura 12.6 del 08-05-1970 12:00, Menor que la Mínima 13.0 08-05-1970 12:00 12.6 -- 13.0 2013-05-11 02:30:00
2 1970-05-21 12:00:00 Temperatura 10.0 del 21-05-1970 09:00, Menor que la Mínima 11.0 21-05-1970 12:00 10.0 -- 11.0 2013-05-11 02:30:00
2 1970-05-27 12:00:00 Temperatura 7.6 del 27-05-1970 11:00, Menor que la Mínima 7.8 27-05-1970 12:00 7.6 -- 7.8 2013-05-11 02:30:00
2 1970-05-29 12:00:00 Temperatura 3.0 del 29-05-1970 12:00, Menor que la Mínima 3.4 29-05-1970 12:00 3.0 -- 3.4 2013-05-11 02:30:00
2 1970-08-09 12:00:00 Temperatura 5.7 del 09-08-1970 10:00, Menor que la Mínima 6.2 09-08-1970 12:00 5.7 -- 6.2 2013-05-11 02:30:00
2 1970-08-15 12:00:00 Temperatura 8.0 del 15-08-1970 09:00, Menor que la Mínima 10.0 15-08-1970 12:00 8.0 -- 10.0 2013-05-11 02:30:00
2 1970-08-21 12:00:00 Temperatura 4.8 del 21-08-1970 11:00, Menor que la Mínima 5.2 21-08-1970 12:00 4.8 -- 5.2 2013-05-11 02:30:00
2 1970-09-08 12:00:00 Temperatura 9.0 del 08-09-1970 12:00, Menor que la Mínima 9.6 08-09-1970 12:00 9.0 -- 9.6 2013-05-11 02:30:00
2 1970-10-12 12:00:00 Temperatura 5.6 del 12-10-1970 09:00, Menor que la Mínima 5.8 12-10-1970 12:00 5.6 -- 5.8 2013-05-11 02:30:00
2 1970-11-01 12:00:00 Temperatura 8.2 del 01-11-1970 09:00, Menor que la Mínima 8.8 01-11-1970 12:00 8.2 -- 8.8 2013-05-11 02:30:00
2 1971-05-08 12:00:00 Temperatura 9.2 del 08-05-1971 11:00, Menor que la Mínima 9.8 08-05-1971 12:00 9.2 -- 9.8 2013-05-11 02:30:00
2 1971-05-10 12:00:00 Temperatura 8.2 del 10-05-1971 11:00, Menor que la Mínima 8.6 10-05-1971 12:00 8.2 -- 8.6 2013-05-11 02:30:00
2 1971-06-12 12:00:00 Temperatura 3.4 del 12-06-1971 12:00, Menor que la Mínima 3.6 12-06-1971 12:00 3.4 -- 3.6 2013-05-11 02:30:00
2 1971-06-16 12:00:00 Temperatura 2.8 del 16-06-1971 12:00, Menor que la Mínima 3.0 16-06-1971 12:00 2.8 -- 3.0 2013-05-11 02:30:00
2 1971-06-18 12:00:00 Temperatura 4.2 del 18-06-1971 12:00, Menor que la Mínima 4.3 18-06-1971 12:00 4.2 -- 4.3 2013-05-11 02:30:00
2 1972-03-11 12:00:00 Temperatura 9.4 del 11-03-1972 11:00, Menor que la Mínima 10.2 11-03-1972 12:00 9.4 -- 10.2 2013-05-11 02:31:00
2 1972-03-21 12:00:00 Temperatura 1.2 del 21-03-1972 11:00, Menor que la Mínima 5.3 21-03-1972 12:00 1.2 -- 5.3 2013-05-11 02:31:00
2 1972-06-11 12:00:00 Temperatura -0.4 del 11-06-1972 12:00, Menor que la Mínima 1.2 11-06-1972 12:00 -0.4 -- 1.2 2013-05-11 02:31:00
2 1972-08-08 12:00:00 Temperatura 9.5 del 08-08-1972 12:00, Menor que la Mínima 9.6 08-08-1972 12:00 9.5 -- 9.6 2013-05-11 02:31:00
2 1972-09-06 12:00:00 Temperatura 1.7 del 06-09-1972 11:00, Menor que la Mínima 1.8 06-09-1972 12:00 1.7 -- 1.8 2013-05-11 02:31:00
2 1972-12-09 12:00:00 Temperatura 11.8 del 09-12-1972 11:00, Menor que la Mínima 14.2 09-12-1972 12:00 11.8 -- 14.2 2013-05-11 02:31:00
2 1973-01-08 12:00:00 Temperatura 8.2 del 08-01-1973 11:00, Menor que la Mínima 13.3 08-01-1973 12:00 8.2 -- 13.3 2013-05-11 02:31:00
2 1973-01-28 12:00:00 Temperatura 12.3 del 28-01-1973 11:00, Menor que la Mínima 12.6 28-01-1973 12:00 12.3 -- 12.6 2013-05-11 02:31:00
2 1973-02-12 12:00:00 Temperatura 11.7 del 12-02-1973 11:00, Menor que la Mínima 11.8 12-02-1973 12:00 11.7 -- 11.8 2013-05-11 02:31:00
2 1973-03-10 12:00:00 Temperatura 13.1 del 10-03-1973 11:00, Menor que la Mínima 15.8 10-03-1973 12:00 13.1 -- 15.8 2013-05-11 02:31:00
2 1973-08-21 12:00:00 Temperatura 0.0 del 21-08-1973 12:00, Menor que la Mínima 0.2 21-08-1973 12:00 0.0 -- 0.2 2013-05-11 02:31:00
2 1973-08-28 12:00:00 Temperatura 2.1 del 28-08-1973 12:00, Menor que la Mínima 2.8 28-08-1973 12:00 2.1 -- 2.8 2013-05-11 02:31:00
2 1973-09-16 12:00:00 Temperatura 2.0 del 16-09-1973 11:00, Menor que la Mínima 11.0 16-09-1973 12:00 2.0 -- 11.0 2013-05-11 02:31:00
2 1974-03-18 12:00:00 Temperatura 8.3 del 18-03-1974 11:00, Menor que la Mínima 8.4 18-03-1974 12:00 8.3 -- 8.4 2013-05-11 02:31:00
2 1974-04-02 12:00:00 Temperatura 12.8 del 02-04-1974 11:00, Menor que la Mínima 13.0 02-04-1974 12:00 12.8 -- 13.0 2013-05-11 02:31:00
2 1974-04-27 12:00:00 Temperatura 6.0 del 27-04-1974 11:00, Menor que la Mínima 6.1 27-04-1974 12:00 6.0 -- 6.1 2013-05-11 02:31:00
2 1974-06-12 12:00:00 Temperatura -1.2 del 12-06-1974 11:00, Menor que la Mínima 1.9 12-06-1974 12:00 -1.2 -- 1.9 2013-05-11 02:31:00
2 1974-06-21 12:00:00 Temperatura 5.2 del 21-06-1974 11:00, Menor que la Mínima 6.4 21-06-1974 12:00 5.2 -- 6.4 2013-05-11 02:31:00
2 1974-07-01 12:00:00 Temperatura 5.2 del 01-07-1974 12:00, Menor que la Mínima 5.4 01-07-1974 12:00 5.2 -- 5.4 2013-05-11 02:31:00
2 1974-07-23 12:00:00 Temperatura 1.8 del 23-07-1974 11:00, Menor que la Mínima 2.0 23-07-1974 12:00 1.8 -- 2.0 2013-05-11 02:31:00
2 1974-08-30 12:00:00 Temperatura 0.4 del 30-08-1974 11:00, Menor que la Mínima 1.2 30-08-1974 12:00 0.4 -- 1.2 2013-05-11 02:31:00
2 1974-10-12 12:00:00 Temperatura 7.5 del 12-10-1974 11:00, Menor que la Mínima 7.8 12-10-1974 12:00 7.5 -- 7.8 2013-05-11 02:31:00
2 1974-11-20 12:00:00 Temperatura 7.1 del 20-11-1974 10:00, Menor que la Mínima 7.5 20-11-1974 12:00 7.1 -- 7.5 2013-05-11 02:31:00
2 1974-12-06 12:00:00 Temperatura 9.2 del 06-12-1974 09:00, Menor que la Mínima 9.7 06-12-1974 12:00 9.2 -- 9.7 2013-05-11 02:31:00
2 1974-12-14 12:00:00 Temperatura 5.2 del 14-12-1974 09:00, Menor que la Mínima 9.1 14-12-1974 12:00 5.2 -- 9.1 2013-05-11 02:31:00
2 1974-12-23 12:00:00 Temperatura 9.9 del 23-12-1974 09:00, Menor que la Mínima 10.1 23-12-1974 12:00 9.9 -- 10.1 2013-05-11 02:31:00
2 1975-01-24 12:00:00 Temperatura 7.0 del 24-01-1975 09:00, Menor que la Mínima 11.9 24-01-1975 12:00 7.0 -- 11.9 2013-05-11 02:32:00
2 1975-02-07 12:00:00 Temperatura 10.6 del 07-02-1975 10:00, Menor que la Mínima 11.4 07-02-1975 12:00 10.6 -- 11.4 2013-05-11 02:32:00
2 1975-02-09 12:00:00 Temperatura 12.0 del 09-02-1975 11:00, Menor que la Mínima 12.1 09-02-1975 12:00 12.0 -- 12.1 2013-05-11 02:32:00
2 1975-02-22 12:00:00 Temperatura 10.2 del 22-02-1975 11:00, Menor que la Mínima 10.3 22-02-1975 12:00 10.2 -- 10.3 2013-05-11 02:32:00
2 1975-02-27 12:00:00 Temperatura 10.7 del 27-02-1975 10:00, Menor que la Mínima 10.9 27-02-1975 12:00 10.7 -- 10.9 2013-05-11 02:32:00
2 1975-04-04 12:00:00 Temperatura 8.2 del 04-04-1975 11:00, Menor que la Mínima 8.4 04-04-1975 12:00 8.2 -- 8.4 2013-05-11 02:32:00
2 1975-04-18 12:00:00 Temperatura 11.2 del 18-04-1975 11:00, Menor que la Mínima 11.8 18-04-1975 12:00 11.2 -- 11.8 2013-05-11 02:32:00
2 1975-05-01 12:00:00 Temperatura -0.5 del 01-05-1975 12:00, Menor que la Mínima -0.4 01-05-1975 12:00 -0.5 -- -0.4 2013-05-11 02:32:00
2 1975-06-13 12:00:00 Temperatura 8.5 del 13-06-1975 11:00, Menor que la Mínima 9.8 13-06-1975 12:00 8.5 -- 9.8 2013-05-11 02:32:00
2 1975-09-20 12:00:00 Temperatura 7.1 del 20-09-1975 09:00, Menor que la Mínima 7.2 20-09-1975 12:00 7.1 -- 7.2 2013-05-11 02:32:00
2 1975-10-23 12:00:00 Temperatura 7.2 del 23-10-1975 12:00, Menor que la Mínima 7.3 23-10-1975 12:00 7.2 -- 7.3 2013-05-11 02:32:00
2 1976-01-29 12:00:00 Temperatura 13.4 del 29-01-1976 12:00, Menor que la Mínima 13.6 29-01-1976 12:00 13.4 -- 13.6 2013-05-11 02:32:00
2 1976-01-31 12:00:00 Temperatura 10.2 del 31-01-1976 11:00, Menor que la Mínima 10.4 31-01-1976 12:00 10.2 -- 10.4 2013-05-11 02:32:00
2 1976-07-06 12:00:00 Temperatura -1.4 del 06-07-1976 11:00, Menor que la Mínima 2.1 06-07-1976 12:00 -1.4 -- 2.1 2013-05-11 02:32:00
2 1977-05-06 12:00:00 Temperatura 0.2 del 06-05-1977 09:00, Menor que la Mínima 10.8 06-05-1977 12:00 0.2 -- 10.8 2013-05-11 02:32:00
2 1977-06-17 12:00:00 Temperatura 0.1 del 17-06-1977 09:00, Menor que la Mínima 0.8 17-06-1977 12:00 0.1 -- 0.8 2013-05-11 02:32:00
2 1977-06-19 12:00:00 Temperatura -0.4 del 19-06-1977 12:00, Menor que la Mínima 0.7 19-06-1977 12:00 -0.4 -- 0.7 2013-05-11 02:32:00
2 1977-07-07 12:00:00 Temperatura 7.8 del 07-07-1977 09:00, Menor que la Mínima 7.9 07-07-1977 12:00 7.8 -- 7.9 2013-05-11 02:32:00
2 1977-08-24 12:00:00 Temperatura 9.0 del 24-08-1977 12:00, Menor que la Mínima 9.4 24-08-1977 12:00 9.0 -- 9.4 2013-05-11 02:32:00
2 1977-09-25 12:00:00 Temperatura 10.0 del 25-09-1977 09:00, Menor que la Mínima 10.1 25-09-1977 12:00 10.0 -- 10.1 2013-05-11 02:32:00
2 1977-10-05 12:00:00 Temperatura 10.1 del 05-10-1977 09:00, Menor que la Mínima 10.3 05-10-1977 12:00 10.1 -- 10.3 2013-05-11 02:32:00
2 1977-10-28 12:00:00 Temperatura 1.0 del 28-10-1977 12:00, Menor que la Mínima 4.6 28-10-1977 12:00 1.0 -- 4.6 2013-05-11 02:32:00
2 1979-01-02 12:00:00 Temperatura 6.6 del 02-01-1979 09:00, Menor que la Mínima 8.1 02-01-1979 12:00 6.6 -- 8.1 2013-05-11 02:32:00
2 1979-01-30 12:00:00 Temperatura 9.6 del 30-01-1979 11:00, Menor que la Mínima 11.8 30-01-1979 12:00 9.6 -- 11.8 2013-05-11 02:32:00
2 1979-04-26 12:00:00 Temperatura 7.4 del 26-04-1979 09:00, Menor que la Mínima 8.0 26-04-1979 12:00 7.4 -- 8.0 2013-05-11 02:32:00
2 1985-01-06 12:00:00 Temperatura 8.0 del 06-01-1985 10:00, Menor que la Mínima 8.2 06-01-1985 12:00 8.0 -- 8.2 2013-05-11 02:34:00
Errores del Nivel 515
Informe generado el 23-07-2024 18:52
Requerimiento: RE6001